Wetterdaten: Freitag, 24.12.2021
Datum Zeit Temp. Aussen Temp. o. S. Temp +5cm Feuchte Auss Luftdruck Regen Sonnenschein Regendauer Solar Windben Empfang
24.12.2021 00:00 7,3 C 6,7 C 4,4 C 99 % 1006,0 hPa 0,0 l/m 0 min 0 min 0 W/m 19,3 km/h (3 Bft) 94,29 %
24.12.2021 00:02 7,3 C 6,7 C 4,4 C 99 % 1006,0 hPa 0,0 l/m 0 min 0 min 0 W/m 19,3 km/h (3 Bft) 95,12 %
24.12.2021 00:04 7,3 C 6,7 C 4,4 C 99 % 1006,0 hPa 0,0 l/m 0 min 0 min 0 W/m 16,1 km/h (3 Bft) 95,92 %
24.12.2021 00:08 7,3 C 6,7 C 4,4 C 99 % 1006,0 hPa 0,0 l/m 0 min 0 min 0 W/m 22,5 km/h (4 Bft) 97,87 %
24.12.2021 00:10 7,4 C 6,7 C 5,0 C 99 % 1006,0 hPa 0,0 l/m 0 min 0 min 0 W/m 32,2 km/h (5 Bft) 97,14 %
24.12.2021 00:12 7,4 C 6,7 C 5,0 C 99 % 1006,0 hPa 0,0 l/m 0 min 0 min 0 W/m 25,7 km/h (4 Bft) 98,11 %
24.12.2021 00:14 7,4 C 6,7 C 5,0 C 99 % 1006,0 hPa 0,0 l/m 0 min 0 min 0 W/m 16,1 km/h (3 Bft) 96,00 %
24.12.2021 00:16 7,4 C 6,7 C 4,4 C 99 % 1006,0 hPa 0,0 l/m 0 min 0 min 0 W/m 19,3 km/h (3 Bft) 97,83 %
24.12.2021 00:18 7,4 C 6,7 C 5,0 C 99 % 1005,9 hPa 0,0 l/m 0 min 2 min 0 W/m 16,1 km/h (3 Bft) 100,00 %
24.12.2021 00:20 7,4 C 6,7 C 5,0 C 99 % 1005,9 hPa 0,0 l/m 0 min 0 min 0 W/m 12,9 km/h (3 Bft) 100,00 %
24.12.2021 00:22 7,4 C 6,7 C 5,0 C 99 % 1005,9 hPa 0,0 l/m 0 min 0 min 0 W/m 12,9 km/h (3 Bft) 97,87 %
24.12.2021 00:24 7,4 C 6,7 C 5,0 C 99 % 1005,9 hPa 0,2 l/m 0 min 0 min 0 W/m 22,5 km/h (4 Bft) 100,00 %
24.12.2021 00:26 7,4 C 6,7 C 5,0 C 99 % 1005,9 hPa 0,0 l/m 0 min 0 min 0 W/m 22,5 km/h (4 Bft) 100,00 %
24.12.2021 00:28 7,4 C 6,7 C 5,0 C 99 % 1006,0 hPa 0,0 l/m 0 min 0 min 0 W/m 22,5 km/h (4 Bft) 100,00 %
24.12.2021 00:30 7,4 C 6,7 C 5,0 C 99 % 1005,9 hPa 0,0 l/m 0 min 2 min 0 W/m 25,7 km/h (4 Bft) 98,00 %
24.12.2021 00:32 7,5 C 6,7 C 5,0 C 99 % 1006,1 hPa 0,0 l/m 0 min 2 min 0 W/m 22,5 km/h (4 Bft) 100,00 %
24.12.2021 00:34 7,6 C 6,7 C 5,0 C 99 % 1006,0 hPa 0,0 l/m 0 min 2 min 0 W/m 22,5 km/h (4 Bft) 100,00 %
24.12.2021 00:36 7,6 C 6,7 C 5,0 C 99 % 1006,0 hPa 0,0 l/m 0 min 2 min 0 W/m 22,5 km/h (4 Bft) 97,87 %
24.12.2021 00:38 7,6 C 6,7 C 5,0 C 99 % 1006,0 hPa 0,0 l/m 0 min 2 min 0 W/m 19,3 km/h (3 Bft) 100,00 %
24.12.2021 00:40 7,6 C 6,7 C 5,0 C 99 % 1006,0 hPa 0,0 l/m 0 min 2 min 0 W/m 16,1 km/h (3 Bft) 100,00 %
24.12.2021 00:42 7,6 C 6,7 C 5,0 C 99 % 1006,0 hPa 0,0 l/m 0 min 2 min 0 W/m 16,1 km/h (3 Bft) 100,00 %
24.12.2021 00:44 7,6 C 6,7 C 5,0 C 99 % 1006,1 hPa 0,0 l/m 0 min 2 min 0 W/m 22,5 km/h (4 Bft) 97,87 %
24.12.2021 00:46 7,6 C 6,7 C 5,0 C 99 % 1006,0 hPa 0,0 l/m 0 min 0 min 0 W/m 22,5 km/h (4 Bft) 100,00 %
24.12.2021 00:48 7,6 C 6,7 C 5,0 C 99 % 1006,0 hPa 0,0 l/m 0 min 2 min 0 W/m 22,5 km/h (4 Bft) 100,00 %
24.12.2021 00:50 7,6 C 6,7 C 5,0 C 99 % 1005,9 hPa 0,0 l/m 0 min 2 min 0 W/m 22,5 km/h (4 Bft) 100,00 %
24.12.2021 00:52 7,6 C 6,7 C 5,0 C 99 % 1005,8 hPa 0,0 l/m 0 min 2 min 0 W/m 19,3 km/h (3 Bft) 100,00 %
24.12.2021 00:54 7,6 C 6,7 C 5,0 C 99 % 1005,9 hPa 0,0 l/m 0 min 2 min 0 W/m 16,1 km/h (3 Bft) 100,00 %
24.12.2021 00:56 7,6 C 6,7 C 5,0 C 99 % 1005,8 hPa 0,0 l/m 0 min 0 min 0 W/m 25,7 km/h (4 Bft) 100,00 %
24.12.2021 00:58 7,6 C 6,7 C 5,0 C 99 % 1005,8 hPa 0,0 l/m 0 min 0 min 0 W/m 22,5 km/h (4 Bft) 100,00 %
24.12.2021 01:00 7,6 C 6,7 C 5,0 C 99 % 1005,9 hPa 0,0 l/m 0 min 0 min 0 W/m 16,1 km/h (3 Bft) 100,00 %
24.12.2021 01:02 7,6 C 6,7 C 5,0 C 99 % 1005,9 hPa 0,0 l/m 0 min 0 min 0 W/m 25,7 km/h (4 Bft) 100,00 %
24.12.2021 01:04 7,6 C 6,7 C 5,0 C 99 % 1005,8 hPa 0,0 l/m 0 min 0 min 0 W/m 25,7 km/h (4 Bft) 100,00 %
24.12.2021 01:06 7,6 C 6,7 C 5,0 C 99 % 1005,8 hPa 0,2 l/m 0 min 2 min 0 W/m 16,1 km/h (3 Bft) 100,00 %
24.12.2021 01:08 7,6 C 6,7 C 5,0 C 99 % 1005,9 hPa 0,0 l/m 0 min 0 min 0 W/m 12,9 km/h (3 Bft) 100,00 %
24.12.2021 01:10 7,6 C 6,7 C 5,0 C 99 % 1005,8 hPa 0,0 l/m 0 min 0 min 0 W/m 22,5 km/h (4 Bft) 97,87 %
24.12.2021 01:12 7,6 C 6,7 C 5,0 C 99 % 1005,8 hPa 0,0 l/m 0 min 0 min 0 W/m 16,1 km/h (3 Bft) 100,00 %
24.12.2021 01:14 7,6 C 6,7 C 5,0 C 99 % 1005,9 hPa 0,0 l/m 0 min 0 min 0 W/m 16,1 km/h (3 Bft) 100,00 %
24.12.2021 01:16 7,6 C 6,7 C 5,0 C 99 % 1005,8 hPa 0,0 l/m 0 min 0 min 0 W/m 19,3 km/h (3 Bft) 54,55 %
24.12.2021 01:18 7,6 C 6,7 C 5,0 C 99 % 1005,8 hPa 0,0 l/m 0 min 0 min 0 W/m 16,1 km/h (3 Bft) 100,00 %
24.12.2021 01:20 7,6 C 6,7 C 5,0 C 99 % 1005,8 hPa 0,0 l/m 0 min 0 min 0 W/m 16,1 km/h (3 Bft) 100,00 %
24.12.2021 01:22 7,6 C 6,7 C 5,0 C 99 % 1005,8 hPa 0,0 l/m 0 min 0 min 0 W/m 12,9 km/h (3 Bft) 100,00 %
24.12.2021 01:24 7,6 C 6,7 C 5,0 C 99 % 1005,7 hPa 0,0 l/m 0 min 0 min 0 W/m 16,1 km/h (3 Bft) 100,00 %
24.12.2021 01:26 7,6 C 6,7 C 5,0 C 99 % 1005,7 hPa 0,0 l/m 0 min 0 min 0 W/m 29,0 km/h (5 Bft) 100,00 %
24.12.2021 01:28 7,6 C 6,7 C 5,0 C 99 % 1005,8 hPa 0,2 l/m 0 min 0 min 0 W/m 19,3 km/h (3 Bft) 100,00 %
24.12.2021 01:30 7,7 C 6,7 C 5,6 C 99 % 1005,7 hPa 0,0 l/m 0 min 0 min 0 W/m 19,3 km/h (3 Bft) 97,87 %
24.12.2021 01:32 7,7 C 6,7 C 5,6 C 99 % 1005,7 hPa 0,0 l/m 0 min 0 min 0 W/m 22,5 km/h (4 Bft) 100,00 %
24.12.2021 01:34 7,7 C 6,7 C 5,6 C 99 % 1005,9 hPa 0,0 l/m 0 min 0 min 0 W/m 25,7 km/h (4 Bft) 100,00 %
24.12.2021 01:36 7,7 C 6,7 C 5,6 C 99 % 1005,7 hPa 0,0 l/m 0 min 0 min 0 W/m 16,1 km/h (3 Bft) 97,87 %
24.12.2021 01:38 7,7 C 6,7 C 5,6 C 99 % 1005,7 hPa 0,0 l/m 0 min 0 min 0 W/m 25,7 km/h (4 Bft) 100,00 %
24.12.2021 01:40 7,7 C 6,7 C 5,6 C 99 % 1005,6 hPa 0,0 l/m 0 min 0 min 0 W/m 25,7 km/h (4 Bft) 97,83 %
24.12.2021 01:42 7,7 C 6,7 C 5,6 C 99 % 1005,6 hPa 0,0 l/m 0 min 0 min 0 W/m 16,1 km/h (3 Bft) 97,87 %
24.12.2021 01:44 7,7 C 6,7 C 5,6 C 99 % 1005,6 hPa 0,0 l/m 0 min 0 min 0 W/m 12,9 km/h (3 Bft) 95,74 %
24.12.2021 01:46 7,7 C 6,7 C 5,6 C 99 % 1005,7 hPa 0,0 l/m 0 min 0 min 0 W/m 22,5 km/h (4 Bft) 93,62 %
24.12.2021 01:48 7,7 C 6,7 C 5,6 C 99 % 1005,6 hPa 0,0 l/m 0 min 0 min 0 W/m 29,0 km/h (5 Bft) 97,87 %
24.12.2021 01:50 7,7 C 6,7 C 5,6 C 99 % 1005,5 hPa 0,0 l/m 0 min 0 min 0 W/m 25,7 km/h (4 Bft) 97,83 %
24.12.2021 01:52 7,7 C 6,7 C 5,6 C 99 % 1005,5 hPa 0,0 l/m 0 min 0 min 0 W/m 22,5 km/h (4 Bft) 97,87 %
24.12.2021 01:54 7,7 C 6,7 C 5,6 C 99 % 1005,5 hPa 0,0 l/m 0 min 0 min 0 W/m 19,3 km/h (3 Bft) 95,74 %
24.12.2021 01:56 7,7 C 6,7 C 5,6 C 99 % 1005,5 hPa 0,0 l/m 0 min 0 min 0 W/m 22,5 km/h (4 Bft) 95,74 %
24.12.2021 01:58 7,7 C 6,7 C 5,6 C 99 % 1005,5 hPa 0,0 l/m 0 min 0 min 0 W/m 12,9 km/h (3 Bft) 95,74 %
24.12.2021 02:00 7,7 C 6,7 C 5,6 C 99 % 1005,5 hPa 0,0 l/m 0 min 0 min 0 W/m 16,1 km/h (3 Bft) 95,74 %
24.12.2021 02:02 7,7 C 6,7 C 5,6 C 99 % 1005,4 hPa 0,0 l/m 0 min 0 min 0 W/m 19,3 km/h (3 Bft) 97,83 %
24.12.2021 02:04 7,7 C 6,7 C 5,6 C 99 % 1005,5 hPa 0,0 l/m 0 min 0 min 0 W/m 19,3 km/h (3 Bft) 95,74 %
24.12.2021 02:06 7,7 C 6,7 C 5,6 C 99 % 1005,4 hPa 0,0 l/m 0 min 0 min 0 W/m 19,3 km/h (3 Bft) 95,74 %
24.12.2021 02:08 7,7 C 6,7 C 5,6 C 99 % 1005,4 hPa 0,0 l/m 0 min 0 min 0 W/m 22,5 km/h (4 Bft) 93,62 %
24.12.2021 02:10 7,7 C 6,7 C 5,6 C 99 % 1005,5 hPa 0,0 l/m 0 min 0 min 0 W/m 16,1 km/h (3 Bft) 91,49 %
24.12.2021 02:12 7,7 C 6,7 C 5,6 C 99 % 1005,4 hPa 0,0 l/m 0 min 0 min 0 W/m 19,3 km/h (3 Bft) 93,62 %
24.12.2021 02:14 7,7 C 6,7 C 5,6 C 99 % 1005,4 hPa 0,0 l/m 0 min 0 min 0 W/m 22,5 km/h (4 Bft) 93,48 %
24.12.2021 02:16 7,7 C 6,7 C 5,6 C 99 % 1005,4 hPa 0,0 l/m 0 min 0 min 0 W/m 19,3 km/h (3 Bft) 93,62 %
24.12.2021 02:18 7,7 C 6,7 C 5,6 C 99 % 1005,2 hPa 0,0 l/m 0 min 0 min 0 W/m 16,1 km/h (3 Bft) 93,62 %
24.12.2021 02:20 7,7 C 6,7 C 5,6 C 99 % 1005,3 hPa 0,0 l/m 0 min 0 min 0 W/m 22,5 km/h (4 Bft) 95,74 %
24.12.2021 02:22 7,8 C 7,2 C 5,6 C 99 % 1005,3 hPa 0,0 l/m 0 min 0 min 0 W/m 32,2 km/h (5 Bft) 93,62 %
24.12.2021 02:24 7,8 C 7,2 C 5,6 C 99 % 1005,3 hPa 0,0 l/m 0 min 0 min 0 W/m 16,1 km/h (3 Bft) 95,74 %
24.12.2021 02:26 7,8 C 7,2 C 5,6 C 99 % 1005,4 hPa 0,0 l/m 0 min 0 min 0 W/m 19,3 km/h (3 Bft) 97,83 %
24.12.2021 02:28 7,8 C 7,2 C 5,6 C 99 % 1005,4 hPa 0,0 l/m 0 min 0 min 0 W/m 16,1 km/h (3 Bft) 97,87 %
24.12.2021 02:30 7,8 C 7,2 C 5,6 C 99 % 1005,3 hPa 0,0 l/m 0 min 0 min 0 W/m 19,3 km/h (3 Bft) 95,74 %
24.12.2021 02:32 7,8 C 7,2 C 5,6 C 99 % 1005,3 hPa 0,0 l/m 0 min 0 min 0 W/m 29,0 km/h (5 Bft) 95,74 %
24.12.2021 02:34 7,8 C 7,2 C 5,6 C 99 % 1005,3 hPa 0,0 l/m 0 min 0 min 0 W/m 16,1 km/h (3 Bft) 95,74 %
24.12.2021 02:36 7,8 C 7,2 C 5,6 C 99 % 1005,3 hPa 0,0 l/m 0 min 0 min 0 W/m 16,1 km/h (3 Bft) 96,15 %
24.12.2021 02:38 7,9 C 7,2 C 5,6 C 99 % 1005,4 hPa 0,0 l/m 0 min 0 min 0 W/m 16,1 km/h (3 Bft) 93,62 %
24.12.2021 02:40 7,8 C 7,2 C 5,6 C 99 % 1005,3 hPa 0,2 l/m 0 min 0 min 0 W/m 12,9 km/h (3 Bft) 97,87 %
24.12.2021 02:42 7,9 C 7,2 C 5,6 C 99 % 1005,3 hPa 0,0 l/m 0 min 0 min 0 W/m 16,1 km/h (3 Bft) 97,87 %
24.12.2021 02:44 7,8 C 7,2 C 5,6 C 99 % 1005,3 hPa 0,0 l/m 0 min 0 min 0 W/m 12,9 km/h (3 Bft) 97,87 %
24.12.2021 02:46 7,9 C 7,2 C 5,6 C 99 % 1005,2 hPa 0,0 l/m 0 min 0 min 0 W/m 19,3 km/h (3 Bft) 97,56 %
24.12.2021 02:48 7,9 C 7,2 C 5,6 C 99 % 1005,3 hPa 0,0 l/m 0 min 0 min 0 W/m 16,1 km/h (3 Bft) 97,83 %
24.12.2021 02:50 7,9 C 7,2 C 5,6 C 99 % 1005,4 hPa 0,0 l/m 0 min 0 min 0 W/m 19,3 km/h (3 Bft) 95,74 %
24.12.2021 02:52 7,9 C 7,2 C 5,6 C 99 % 1005,3 hPa 0,0 l/m 0 min 0 min 0 W/m 22,5 km/h (4 Bft) 97,87 %
24.12.2021 02:54 7,9 C 7,2 C 5,6 C 99 % 1005,4 hPa 0,0 l/m 0 min 0 min 0 W/m 16,1 km/h (3 Bft) 97,87 %
24.12.2021 02:56 7,9 C 7,2 C 5,6 C 99 % 1005,4 hPa 0,0 l/m 0 min 0 min 0 W/m 19,3 km/h (3 Bft) 97,87 %
24.12.2021 02:58 7,9 C 7,2 C 5,6 C 99 % 1005,4 hPa 0,0 l/m 0 min 0 min 0 W/m 16,1 km/h (3 Bft) 100,00 %
24.12.2021 03:00 7,9 C 7,2 C 5,6 C 99 % 1005,4 hPa 0,0 l/m 0 min 0 min 0 W/m 16,1 km/h (3 Bft) 97,87 %
24.12.2021 03:02 7,9 C 7,2 C 5,6 C 99 % 1005,4 hPa 0,0 l/m 0 min 0 min 0 W/m 25,7 km/h (4 Bft) 100,00 %
24.12.2021 03:04 7,9 C 7,2 C 5,6 C 99 % 1005,4 hPa 0,0 l/m 0 min 2 min 0 W/m 19,3 km/h (3 Bft) 97,87 %
24.12.2021 03:06 7,9 C 7,2 C 5,6 C 99 % 1005,3 hPa 0,0 l/m 0 min 0 min 0 W/m 19,3 km/h (3 Bft) 100,00 %
24.12.2021 03:08 8,0 C 7,2 C 5,6 C 99 % 1005,4 hPa 0,0 l/m 0 min 0 min 0 W/m 22,5 km/h (4 Bft) 93,62 %
24.12.2021 03:10 8,0 C 7,2 C 5,6 C 99 % 1005,3 hPa 0,0 l/m 0 min 0 min 0 W/m 22,5 km/h (4 Bft) 100,00 %
24.12.2021 03:12 8,0 C 7,2 C 6,1 C 99 % 1005,3 hPa 0,0 l/m 0 min 2 min 0 W/m 25,7 km/h (4 Bft) 97,87 %
24.12.2021 03:14 8,1 C 7,2 C 6,1 C 99 % 1005,2 hPa 0,0 l/m 0 min 2 min 0 W/m 25,7 km/h (4 Bft) 100,00 %
24.12.2021 03:16 8,1 C 7,2 C 6,1 C 99 % 1005,3 hPa 0,0 l/m 0 min 0 min 0 W/m 29,0 km/h (5 Bft) 100,00 %
24.12.2021 03:18 8,1 C 7,2 C 6,1 C 99 % 1005,2 hPa 0,0 l/m 0 min 0 min 0 W/m 12,9 km/h (3 Bft) 100,00 %
24.12.2021 03:20 8,1 C 7,2 C 6,1 C 99 % 1005,2 hPa 0,0 l/m 0 min 2 min 0 W/m 19,3 km/h (3 Bft) 100,00 %
24.12.2021 03:22 8,1 C 7,2 C 6,1 C 99 % 1005,2 hPa 0,0 l/m 0 min 0 min 0 W/m 19,3 km/h (3 Bft) 100,00 %
24.12.2021 03:24 8,1 C 7,2 C 6,1 C 99 % 1005,2 hPa 0,0 l/m 0 min 0 min 0 W/m 19,3 km/h (3 Bft) 100,00 %
24.12.2021 03:26 8,1 C 7,2 C 6,1 C 99 % 1005,2 hPa 0,0 l/m 0 min 0 min 0 W/m 19,3 km/h (3 Bft) 100,00 %
24.12.2021 03:28 8,1 C 7,2 C 6,1 C 99 % 1005,2 hPa 0,0 l/m 0 min 0 min 0 W/m 19,3 km/h (3 Bft) 97,87 %
24.12.2021 03:30 8,1 C 7,2 C 6,1 C 99 % 1005,2 hPa 0,0 l/m 0 min 0 min 0 W/m 16,1 km/h (3 Bft) 100,00 %
24.12.2021 03:32 8,1 C 7,2 C 6,1 C 99 % 1005,2 hPa 0,0 l/m 0 min 0 min 0 W/m 16,1 km/h (3 Bft) 97,87 %
24.12.2021 03:34 8,1 C 7,2 C 6,1 C 99 % 1005,2 hPa 0,0 l/m 0 min 0 min 0 W/m 19,3 km/h (3 Bft) 97,83 %
24.12.2021 03:36 8,1 C 7,2 C 6,1 C 99 % 1005,0 hPa 0,0 l/m 0 min 0 min 0 W/m 22,5 km/h (4 Bft) 100,00 %
24.12.2021 03:38 8,1 C 7,2 C 6,1 C 99 % 1005,0 hPa 0,0 l/m 0 min 0 min 0 W/m 32,2 km/h (5 Bft) 100,00 %
24.12.2021 03:40 8,1 C 7,2 C 6,1 C 99 % 1004,9 hPa 0,0 l/m 0 min 0 min 0 W/m 16,1 km/h (3 Bft) 97,87 %
24.12.2021 03:42 8,1 C 7,2 C 6,1 C 99 % 1004,9 hPa 0,0 l/m 0 min 0 min 0 W/m 16,1 km/h (3 Bft) 97,87 %
24.12.2021 03:44 8,1 C 7,2 C 6,1 C 99 % 1004,9 hPa 0,0 l/m 0 min 0 min 0 W/m 16,1 km/h (3 Bft) 97,87 %
24.12.2021 03:46 8,1 C 7,2 C 6,1 C 99 % 1004,9 hPa 0,0 l/m 0 min 0 min 0 W/m 16,1 km/h (3 Bft) 97,83 %
24.12.2021 03:48 8,1 C 7,2 C 6,1 C 99 % 1004,8 hPa 0,0 l/m 0 min 0 min 0 W/m 16,1 km/h (3 Bft) 97,87 %
24.12.2021 03:50 8,1 C 7,2 C 6,1 C 99 % 1004,8 hPa 0,0 l/m 0 min 0 min 0 W/m 16,1 km/h (3 Bft) 97,87 %
24.12.2021 03:52 8,1 C 7,2 C 6,1 C 99 % 1004,8 hPa 0,0 l/m 0 min 0 min 0 W/m 16,1 km/h (3 Bft) 97,87 %
24.12.2021 03:54 8,1 C 7,2 C 6,1 C 99 % 1004,8 hPa 0,0 l/m 0 min 0 min 0 W/m 12,9 km/h (3 Bft) 97,87 %
24.12.2021 03:56 8,1 C 7,2 C 6,1 C 99 % 1004,9 hPa 0,0 l/m 0 min 0 min 0 W/m 35,4 km/h (5 Bft) 97,87 %
24.12.2021 03:58 8,1 C 7,2 C 6,1 C 99 % 1004,8 hPa 0,0 l/m 0 min 0 min 0 W/m 12,9 km/h (3 Bft) 97,83 %
24.12.2021 04:00 8,1 C 7,2 C 6,1 C 99 % 1004,8 hPa 0,0 l/m 0 min 0 min 0 W/m 12,9 km/h (3 Bft) 97,87 %
24.12.2021 04:02 8,1 C 7,2 C 6,1 C 99 % 1004,9 hPa 0,0 l/m 0 min 0 min 0 W/m 12,9 km/h (3 Bft) 96,88 %
24.12.2021 04:07 8,1 C 7,2 C 6,1 C 99 % 1004,8 hPa 0,0 l/m 0 min 0 min 0 W/m 25,7 km/h (4 Bft) 100,00 %
24.12.2021 04:08 8,1 C 7,2 C 6,1 C 99 % 1004,8 hPa 0,0 l/m 0 min 0 min 0 W/m 16,1 km/h (3 Bft) 100,00 %
24.12.2021 04:10 8,1 C 7,2 C 6,1 C 99 % 1004,8 hPa 0,0 l/m 0 min 0 min 0 W/m 19,3 km/h (3 Bft) 97,87 %
24.12.2021 04:12 8,1 C 7,2 C 6,1 C 99 % 1004,8 hPa 0,0 l/m 0 min 0 min 0 W/m 16,1 km/h (3 Bft) 51,16 %
24.12.2021 04:14 8,1 C 7,2 C 6,1 C 99 % 1004,8 hPa 0,0 l/m 0 min 0 min 0 W/m 16,1 km/h (3 Bft) 100,00 %
24.12.2021 04:16 8,1 C 7,2 C 6,1 C 99 % 1004,8 hPa 0,0 l/m 0 min 0 min 0 W/m 16,1 km/h (3 Bft) 100,00 %
24.12.2021 04:18 8,1 C 7,2 C 6,1 C 99 % 1004,8 hPa 0,0 l/m 0 min 0 min 0 W/m 12,9 km/h (3 Bft) 100,00 %
24.12.2021 04:20 8,1 C 7,2 C 6,1 C 99 % 1004,8 hPa 0,0 l/m 0 min 0 min 0 W/m 19,3 km/h (3 Bft) 100,00 %
24.12.2021 04:22 8,1 C 7,2 C 6,1 C 99 % 1004,8 hPa 0,0 l/m 0 min 0 min 0 W/m 9,7 km/h (2 Bft) 97,87 %
24.12.2021 04:24 8,1 C 7,2 C 6,1 C 99 % 1004,8 hPa 0,0 l/m 0 min 0 min 0 W/m 19,3 km/h (3 Bft) 100,00 %
24.12.2021 04:26 8,1 C 7,2 C 6,1 C 99 % 1004,9 hPa 0,0 l/m 0 min 0 min 0 W/m 22,5 km/h (4 Bft) 100,00 %
24.12.2021 04:28 8,1 C 7,2 C 6,1 C 99 % 1004,9 hPa 0,0 l/m 0 min 0 min 0 W/m 29,0 km/h (5 Bft) 97,87 %
24.12.2021 04:30 8,1 C 7,2 C 6,1 C 99 % 1004,9 hPa 0,0 l/m 0 min 0 min 0 W/m 19,3 km/h (3 Bft) 97,87 %
24.12.2021 04:32 8,1 C 7,2 C 6,1 C 99 % 1004,9 hPa 0,0 l/m 0 min 0 min 0 W/m 19,3 km/h (3 Bft) 100,00 %
24.12.2021 04:34 8,1 C 7,2 C 6,1 C 99 % 1004,8 hPa 0,0 l/m 0 min 0 min 0 W/m 12,9 km/h (3 Bft) 97,83 %
24.12.2021 04:36 8,1 C 7,2 C 6,1 C 99 % 1004,9 hPa 0,0 l/m 0 min 0 min 0 W/m 29,0 km/h (5 Bft) 98,31 %
24.12.2021 04:38 8,1 C 7,2 C 6,1 C 99 % 1004,9 hPa 0,0 l/m 0 min 0 min 0 W/m 19,3 km/h (3 Bft) 97,14 %
24.12.2021 04:40 8,1 C 7,2 C 6,1 C 99 % 1004,8 hPa 0,0 l/m 0 min 0 min 0 W/m 35,4 km/h (5 Bft) 98,31 %
24.12.2021 04:42 8,1 C 7,2 C 6,1 C 99 % 1004,8 hPa 0,0 l/m 0 min 0 min 0 W/m 22,5 km/h (4 Bft) 95,65 %
24.12.2021 04:44 8,2 C 7,2 C 6,1 C 99 % 1004,8 hPa 0,0 l/m 0 min 0 min 0 W/m 19,3 km/h (3 Bft) 97,87 %
24.12.2021 04:46 8,2 C 7,2 C 6,1 C 99 % 1004,8 hPa 0,0 l/m 0 min 0 min 0 W/m 19,3 km/h (3 Bft) 94,29 %
24.12.2021 04:48 8,2 C 7,2 C 6,1 C 99 % 1004,8 hPa 0,0 l/m 0 min 0 min 0 W/m 12,9 km/h (3 Bft) 95,74 %
24.12.2021 04:50 8,1 C 7,2 C 6,1 C 99 % 1004,9 hPa 0,0 l/m 0 min 0 min 0 W/m 19,3 km/h (3 Bft) 98,31 %
24.12.2021 04:52 8,1 C 7,2 C 6,1 C 99 % 1004,8 hPa 0,0 l/m 0 min 0 min 0 W/m 19,3 km/h (3 Bft) 94,29 %
24.12.2021 04:54 8,1 C 7,2 C 6,1 C 99 % 1004,8 hPa 0,0 l/m 0 min 0 min 0 W/m 29,0 km/h (5 Bft) 97,87 %
24.12.2021 04:56 8,1 C 7,2 C 6,1 C 99 % 1004,8 hPa 0,0 l/m 0 min 0 min 0 W/m 16,1 km/h (3 Bft) 95,74 %
24.12.2021 04:58 8,1 C 7,2 C 6,1 C 99 % 1004,8 hPa 0,0 l/m 0 min 0 min 0 W/m 16,1 km/h (3 Bft) 95,65 %
24.12.2021 05:00 8,1 C 7,2 C 6,1 C 99 % 1004,8 hPa 0,0 l/m 0 min 0 min 0 W/m 16,1 km/h (3 Bft) 91,53 %
24.12.2021 05:02 8,1 C 7,2 C 6,1 C 99 % 1004,9 hPa 0,0 l/m 0 min 0 min 0 W/m 22,5 km/h (4 Bft) 96,77 %
24.12.2021 05:04 8,2 C 7,2 C 6,1 C 99 % 1004,9 hPa 0,0 l/m 0 min 0 min 0 W/m 25,7 km/h (4 Bft) 94,00 %
24.12.2021 05:06 8,2 C 7,2 C 6,1 C 99 % 1004,8 hPa 0,0 l/m 0 min 0 min 0 W/m 16,1 km/h (3 Bft) 93,62 %
24.12.2021 05:08 8,2 C 7,2 C 6,1 C 99 % 1004,9 hPa 0,0 l/m 0 min 0 min 0 W/m 22,5 km/h (4 Bft) 95,74 %
24.12.2021 05:10 8,2 C 7,2 C 6,1 C 99 % 1004,8 hPa 0,0 l/m 0 min 0 min 0 W/m 12,9 km/h (3 Bft) 95,65 %
24.12.2021 05:12 8,1 C 7,2 C 6,1 C 99 % 1004,8 hPa 0,0 l/m 0 min 0 min 0 W/m 16,1 km/h (3 Bft) 95,74 %
24.12.2021 05:14 8,2 C 7,2 C 6,1 C 99 % 1004,9 hPa 0,0 l/m 0 min 0 min 0 W/m 19,3 km/h (3 Bft) 95,74 %
24.12.2021 05:16 8,2 C 7,2 C 6,1 C 99 % 1004,9 hPa 0,0 l/m 0 min 0 min 0 W/m 12,9 km/h (3 Bft) 91,49 %
24.12.2021 05:18 8,2 C 7,2 C 6,1 C 99 % 1004,9 hPa 0,0 l/m 0 min 0 min 0 W/m 12,9 km/h (3 Bft) 97,87 %
24.12.2021 05:20 8,2 C 7,2 C 6,1 C 99 % 1004,8 hPa 0,0 l/m 0 min 0 min 0 W/m 16,1 km/h (3 Bft) 97,87 %
24.12.2021 05:22 8,2 C 7,2 C 6,1 C 99 % 1004,8 hPa 0,0 l/m 0 min 0 min 0 W/m 19,3 km/h (3 Bft) 97,83 %
24.12.2021 05:24 8,2 C 7,2 C 6,1 C 99 % 1004,9 hPa 0,0 l/m 0 min 0 min 0 W/m 22,5 km/h (4 Bft) 97,87 %
24.12.2021 05:26 8,2 C 7,2 C 6,1 C 99 % 1004,7 hPa 0,0 l/m 0 min 0 min 0 W/m 16,1 km/h (3 Bft) 97,87 %
24.12.2021 05:28 8,2 C 7,2 C 6,1 C 99 % 1004,8 hPa 0,0 l/m 0 min 0 min 0 W/m 25,7 km/h (4 Bft) 97,87 %
24.12.2021 05:30 8,2 C 7,8 C 6,1 C 99 % 1004,8 hPa 0,0 l/m 0 min 0 min 0 W/m 19,3 km/h (3 Bft) 97,87 %
24.12.2021 05:32 8,2 C 7,2 C 6,1 C 99 % 1004,8 hPa 0,0 l/m 0 min 0 min 0 W/m 19,3 km/h (3 Bft) 97,83 %
24.12.2021 05:34 8,2 C 7,2 C 6,1 C 99 % 1004,9 hPa 0,0 l/m 0 min 0 min 0 W/m 22,5 km/h (4 Bft) 93,62 %
24.12.2021 05:36 8,2 C 7,2 C 6,1 C 99 % 1004,9 hPa 0,0 l/m 0 min 0 min 0 W/m 19,3 km/h (3 Bft) 95,74 %
24.12.2021 05:38 8,2 C 7,8 C 6,1 C 99 % 1004,8 hPa 0,0 l/m 0 min 0 min 0 W/m 29,0 km/h (5 Bft) 100,00 %
24.12.2021 05:40 8,2 C 7,8 C 6,1 C 99 % 1004,8 hPa 0,0 l/m 0 min 0 min 0 W/m 19,3 km/h (3 Bft) 95,74 %
24.12.2021 05:42 8,2 C 7,8 C 6,1 C 99 % 1004,7 hPa 0,0 l/m 0 min 0 min 0 W/m 22,5 km/h (4 Bft) 95,74 %
24.12.2021 05:44 8,2 C 7,8 C 6,1 C 99 % 1004,8 hPa 0,0 l/m 0 min 0 min 0 W/m 16,1 km/h (3 Bft) 95,65 %
24.12.2021 05:46 8,3 C 7,8 C 6,1 C 99 % 1004,9 hPa 0,0 l/m 0 min 0 min 0 W/m 22,5 km/h (4 Bft) 95,74 %
24.12.2021 05:48 8,3 C 7,8 C 6,1 C 99 % 1004,8 hPa 0,0 l/m 0 min 0 min 0 W/m 25,7 km/h (4 Bft) 97,87 %
24.12.2021 05:50 8,3 C 7,8 C 6,1 C 99 % 1004,9 hPa 0,0 l/m 0 min 0 min 0 W/m 12,9 km/h (3 Bft) 97,87 %
24.12.2021 05:52 8,3 C 7,8 C 6,1 C 99 % 1004,8 hPa 0,0 l/m 0 min 0 min 0 W/m 19,3 km/h (3 Bft) 95,74 %
24.12.2021 05:54 8,3 C 7,8 C 6,1 C 99 % 1004,9 hPa 0,0 l/m 0 min 0 min 0 W/m 19,3 km/h (3 Bft) 93,62 %
24.12.2021 05:56 8,3 C 7,8 C 6,1 C 99 % 1005,0 hPa 0,0 l/m 0 min 0 min 0 W/m 22,5 km/h (4 Bft) 97,83 %
24.12.2021 05:58 8,3 C 7,8 C 6,1 C 99 % 1004,9 hPa 0,0 l/m 0 min 0 min 0 W/m 12,9 km/h (3 Bft) 97,87 %
24.12.2021 06:00 8,2 C 7,8 C 6,1 C 99 % 1004,9 hPa 0,0 l/m 0 min 0 min 0 W/m 16,1 km/h (3 Bft) 97,87 %
24.12.2021 06:02 8,2 C 7,8 C 6,1 C 99 % 1004,9 hPa 0,0 l/m 0 min 0 min 0 W/m 25,7 km/h (4 Bft) 98,15 %
24.12.2021 06:04 8,3 C 7,8 C 6,1 C 99 % 1005,0 hPa 0,0 l/m 0 min 0 min 0 W/m 19,3 km/h (3 Bft) 95,74 %
24.12.2021 06:08 8,3 C 7,2 C 6,1 C 99 % 1004,9 hPa 0,0 l/m 0 min 0 min 0 W/m 12,9 km/h (3 Bft) 97,87 %
24.12.2021 06:10 8,2 C 7,8 C 6,1 C 99 % 1004,9 hPa 0,0 l/m 0 min 0 min 0 W/m 12,9 km/h (3 Bft) 97,87 %
24.12.2021 06:12 8,2 C 7,8 C 6,1 C 99 % 1005,0 hPa 0,0 l/m 0 min 0 min 0 W/m 16,1 km/h (3 Bft) 100,00 %
24.12.2021 06:14 8,2 C 7,8 C 6,1 C 99 % 1005,0 hPa 0,0 l/m 0 min 0 min 0 W/m 12,9 km/h (3 Bft) 100,00 %
24.12.2021 06:16 8,3 C 7,8 C 6,1 C 98 % 1005,0 hPa 0,0 l/m 0 min 0 min 0 W/m 12,9 km/h (3 Bft) 100,00 %
24.12.2021 06:18 8,2 C 7,8 C 6,1 C 98 % 1005,0 hPa 0,0 l/m 0 min 0 min 0 W/m 16,1 km/h (3 Bft) 100,00 %
24.12.2021 06:20 8,3 C 7,8 C 6,1 C 98 % 1005,1 hPa 0,0 l/m 0 min 0 min 0 W/m 16,1 km/h (3 Bft) 100,00 %
24.12.2021 06:22 8,3 C 7,8 C 6,1 C 98 % 1005,1 hPa 0,0 l/m 0 min 0 min 0 W/m 12,9 km/h (3 Bft) 100,00 %
24.12.2021 06:24 8,3 C 7,8 C 6,1 C 98 % 1005,1 hPa 0,0 l/m 0 min 0 min 0 W/m 19,3 km/h (3 Bft) 97,87 %
24.12.2021 06:26 8,3 C 7,8 C 6,1 C 98 % 1005,1 hPa 0,0 l/m 0 min 0 min 0 W/m 16,1 km/h (3 Bft) 100,00 %
24.12.2021 06:28 8,3 C 7,8 C 6,1 C 98 % 1005,1 hPa 0,0 l/m 0 min 0 min 0 W/m 16,1 km/h (3 Bft) 97,87 %
24.12.2021 06:30 8,3 C 7,8 C 6,1 C 98 % 1005,0 hPa 0,0 l/m 0 min 0 min 0 W/m 12,9 km/h (3 Bft) 100,00 %
24.12.2021 06:32 8,3 C 7,8 C 6,1 C 98 % 1005,1 hPa 0,0 l/m 0 min 0 min 0 W/m 12,9 km/h (3 Bft) 100,00 %
24.12.2021 06:34 8,3 C 7,8 C 6,1 C 98 % 1005,1 hPa 0,0 l/m 0 min 0 min 0 W/m 19,3 km/h (3 Bft) 100,00 %
24.12.2021 06:36 8,3 C 7,8 C 6,1 C 98 % 1005,0 hPa 0,0 l/m 0 min 0 min 0 W/m 12,9 km/h (3 Bft) 97,87 %
24.12.2021 06:38 8,2 C 7,2 C 6,1 C 98 % 1005,1 hPa 0,0 l/m 0 min 0 min 0 W/m 12,9 km/h (3 Bft) 100,00 %
24.12.2021 06:40 8,2 C 7,8 C 6,1 C 98 % 1005,1 hPa 0,0 l/m 0 min 0 min 0 W/m 16,1 km/h (3 Bft) 100,00 %
24.12.2021 06:42 8,3 C 7,8 C 6,7 C 98 % 1005,1 hPa 0,0 l/m 0 min 0 min 0 W/m 12,9 km/h (3 Bft) 100,00 %
24.12.2021 06:44 8,2 C 7,8 C 6,1 C 98 % 1005,1 hPa 0,0 l/m 0 min 0 min 0 W/m 12,9 km/h (3 Bft) 97,87 %
24.12.2021 06:46 8,3 C 7,8 C 6,1 C 98 % 1005,0 hPa 0,0 l/m 0 min 0 min 0 W/m 12,9 km/h (3 Bft) 100,00 %
24.12.2021 06:48 8,3 C 7,8 C 6,1 C 98 % 1005,1 hPa 0,0 l/m 0 min 0 min 0 W/m 12,9 km/h (3 Bft) 100,00 %
24.12.2021 06:50 8,3 C 7,8 C 6,1 C 98 % 1005,1 hPa 0,0 l/m 0 min 0 min 0 W/m 16,1 km/h (3 Bft) 100,00 %
24.12.2021 06:52 8,3 C 7,8 C 6,1 C 98 % 1005,1 hPa 0,0 l/m 0 min 0 min 0 W/m 12,9 km/h (3 Bft) 97,96 %
24.12.2021 06:54 8,3 C 7,8 C 6,1 C 98 % 1005,1 hPa 0,0 l/m 0 min 0 min 0 W/m 19,3 km/h (3 Bft) 100,00 %
24.12.2021 06:56 8,3 C 7,8 C 6,7 C 98 % 1005,1 hPa 0,0 l/m 0 min 0 min 0 W/m 12,9 km/h (3 Bft) 100,00 %
24.12.2021 06:58 8,3 C 7,8 C 6,1 C 98 % 1005,1 hPa 0,0 l/m 0 min 0 min 0 W/m 16,1 km/h (3 Bft) 97,87 %
24.12.2021 07:00 8,3 C 7,8 C 6,1 C 98 % 1005,1 hPa 0,0 l/m 0 min 0 min 0 W/m 12,9 km/h (3 Bft) 97,87 %
24.12.2021 07:02 8,3 C 7,8 C 6,1 C 98 % 1005,1 hPa 0,0 l/m 0 min 0 min 0 W/m 12,9 km/h (3 Bft) 100,00 %
24.12.2021 07:04 8,3 C 7,8 C 6,1 C 98 % 1005,0 hPa 0,0 l/m 0 min 0 min 0 W/m 9,7 km/h (2 Bft) 100,00 %
24.12.2021 07:06 8,3 C 7,8 C 6,1 C 98 % 1005,0 hPa 0,0 l/m 0 min 0 min 0 W/m 19,3 km/h (3 Bft) 100,00 %
24.12.2021 07:08 8,3 C 7,8 C 6,1 C 98 % 1005,1 hPa 0,0 l/m 0 min 0 min 0 W/m 16,1 km/h (3 Bft) 98,25 %
24.12.2021 07:10 8,3 C 7,8 C 6,1 C 98 % 1005,1 hPa 0,0 l/m 0 min 0 min 0 W/m 12,9 km/h (3 Bft) 93,62 %
24.12.2021 07:12 8,3 C 7,8 C 6,7 C 98 % 1005,1 hPa 0,0 l/m 0 min 0 min 0 W/m 12,9 km/h (3 Bft) 97,87 %
24.12.2021 07:14 8,3 C 7,8 C 6,7 C 98 % 1005,1 hPa 0,0 l/m 0 min 0 min 0 W/m 12,9 km/h (3 Bft) 97,87 %
24.12.2021 07:16 8,3 C 7,8 C 6,7 C 98 % 1005,1 hPa 0,0 l/m 0 min 0 min 0 W/m 22,5 km/h (4 Bft) 95,65 %
24.12.2021 07:18 8,3 C 7,8 C 6,1 C 98 % 1005,1 hPa 0,0 l/m 0 min 0 min 0 W/m 16,1 km/h (3 Bft) 97,87 %
24.12.2021 07:20 8,3 C 7,8 C 6,7 C 98 % 1005,1 hPa 0,0 l/m 0 min 0 min 0 W/m 12,9 km/h (3 Bft) 97,87 %
24.12.2021 07:22 8,3 C 7,8 C 6,7 C 98 % 1005,2 hPa 0,0 l/m 0 min 0 min 0 W/m 12,9 km/h (3 Bft) 95,74 %
24.12.2021 07:24 8,3 C 7,8 C 6,7 C 98 % 1005,1 hPa 0,0 l/m 0 min 0 min 0 W/m 19,3 km/h (3 Bft) 97,87 %
24.12.2021 07:26 8,3 C 7,8 C 6,7 C 98 % 1005,1 hPa 0,0 l/m 0 min 0 min 0 W/m 12,9 km/h (3 Bft) 93,62 %
24.12.2021 07:28 8,3 C 7,8 C 6,7 C 98 % 1005,1 hPa 0,0 l/m 0 min 0 min 0 W/m 19,3 km/h (3 Bft) 95,74 %
24.12.2021 07:30 8,3 C 7,8 C 6,7 C 98 % 1005,1 hPa 0,0 l/m 0 min 0 min 0 W/m 12,9 km/h (3 Bft) 97,83 %
24.12.2021 07:32 8,3 C 7,8 C 6,7 C 98 % 1005,2 hPa 0,0 l/m 0 min 0 min 0 W/m 12,9 km/h (3 Bft) 97,87 %
24.12.2021 07:34 8,3 C 7,8 C 6,7 C 98 % 1005,2 hPa 0,0 l/m 0 min 0 min 0 W/m 16,1 km/h (3 Bft) 97,87 %
24.12.2021 07:36 8,3 C 7,8 C 6,1 C 98 % 1005,2 hPa 0,0 l/m 0 min 0 min 0 W/m 22,5 km/h (4 Bft) 97,87 %
24.12.2021 07:38 8,4 C 7,8 C 6,1 C 98 % 1005,2 hPa 0,0 l/m 0 min 0 min 0 W/m 12,9 km/h (3 Bft) 95,74 %
24.12.2021 07:40 8,3 C 7,8 C 6,7 C 98 % 1005,2 hPa 0,0 l/m 0 min 0 min 0 W/m 19,3 km/h (3 Bft) 95,65 %
24.12.2021 07:42 8,4 C 7,8 C 6,7 C 98 % 1005,3 hPa 0,0 l/m 0 min 0 min 0 W/m 9,7 km/h (2 Bft) 93,75 %
24.12.2021 07:44 8,3 C 7,8 C 6,1 C 98 % 1005,2 hPa 0,0 l/m 0 min 0 min 0 W/m 12,9 km/h (3 Bft) 95,74 %
24.12.2021 07:46 8,3 C 7,8 C 6,1 C 98 % 1005,2 hPa 0,0 l/m 0 min 0 min 0 W/m 12,9 km/h (3 Bft) 95,74 %
24.12.2021 07:48 8,4 C 7,8 C 6,1 C 98 % 1005,2 hPa 0,0 l/m 0 min 0 min 0 W/m 6,4 km/h (2 Bft) 95,74 %
24.12.2021 07:50 8,3 C 7,8 C 6,1 C 98 % 1005,2 hPa 0,0 l/m 0 min 0 min 0 W/m 6,4 km/h (2 Bft) 95,65 %
24.12.2021 07:52 8,3 C 7,8 C 6,1 C 98 % 1005,2 hPa 0,0 l/m 0 min 0 min 0 W/m 6,4 km/h (2 Bft) 95,74 %
24.12.2021 07:54 8,3 C 7,8 C 6,1 C 98 % 1005,2 hPa 0,0 l/m 0 min 0 min 0 W/m 16,1 km/h (3 Bft) 95,74 %
24.12.2021 07:56 8,3 C 7,8 C 6,1 C 98 % 1005,1 hPa 0,0 l/m 0 min 0 min 0 W/m 25,7 km/h (4 Bft) 93,62 %
24.12.2021 07:58 8,3 C 7,8 C 6,1 C 98 % 1005,1 hPa 0,0 l/m 0 min 0 min 0 W/m 12,9 km/h (3 Bft) 95,74 %
24.12.2021 08:00 8,3 C 7,8 C 6,1 C 98 % 1005,1 hPa 0,0 l/m 0 min 0 min 0 W/m 12,9 km/h (3 Bft) 95,74 %
24.12.2021 08:02 8,3 C 7,8 C 6,1 C 98 % 1005,1 hPa 0,0 l/m 0 min 0 min 0 W/m 19,3 km/h (3 Bft) 94,44 %
24.12.2021 08:04 8,3 C 7,8 C 6,1 C 98 % 1005,1 hPa 0,0 l/m 0 min 0 min 0 W/m 19,3 km/h (3 Bft) 95,74 %
24.12.2021 08:06 8,3 C 7,8 C 6,1 C 98 % 1005,1 hPa 0,0 l/m 0 min 0 min 0 W/m 12,9 km/h (3 Bft) 95,65 %
24.12.2021 08:08 8,3 C 7,8 C 6,1 C 98 % 1005,1 hPa 0,0 l/m 0 min 0 min 0 W/m 6,4 km/h (2 Bft) 93,22 %
24.12.2021 08:10 8,3 C 7,8 C 6,1 C 98 % 1005,1 hPa 0,0 l/m 0 min 0 min 0 W/m 12,9 km/h (3 Bft) 97,14 %
24.12.2021 08:12 8,3 C 7,8 C 6,1 C 98 % 1005,2 hPa 0,0 l/m 0 min 0 min 0 W/m 12,9 km/h (3 Bft) 97,87 %
24.12.2021 08:14 8,3 C 7,8 C 6,1 C 98 % 1005,2 hPa 0,0 l/m 0 min 0 min 0 W/m 12,9 km/h (3 Bft) 95,74 %
24.12.2021 08:16 8,3 C 7,8 C 6,1 C 98 % 1005,2 hPa 0,0 l/m 0 min 0 min 0 W/m 19,3 km/h (3 Bft) 97,83 %
24.12.2021 08:18 8,3 C 7,8 C 6,1 C 98 % 1005,2 hPa 0,0 l/m 0 min 0 min 0 W/m 9,7 km/h (2 Bft) 95,74 %
24.12.2021 08:20 8,3 C 7,8 C 6,7 C 98 % 1005,2 hPa 0,0 l/m 0 min 0 min 0 W/m 16,1 km/h (3 Bft) 97,87 %
24.12.2021 08:22 8,3 C 7,8 C 6,7 C 98 % 1005,3 hPa 0,0 l/m 0 min 0 min 0 W/m 16,1 km/h (3 Bft) 97,87 %
24.12.2021 08:24 8,4 C 7,8 C 6,1 C 98 % 1005,4 hPa 0,0 l/m 0 min 0 min 0 W/m 12,9 km/h (3 Bft) 95,74 %
24.12.2021 08:26 8,4 C 7,8 C 6,7 C 98 % 1005,4 hPa 0,0 l/m 0 min 0 min 0 W/m 12,9 km/h (3 Bft) 94,83 %
24.12.2021 08:28 8,4 C 7,8 C 6,7 C 98 % 1005,4 hPa 0,0 l/m 0 min 0 min 0 W/m 16,1 km/h (3 Bft) 97,22 %
24.12.2021 08:30 8,4 C 7,8 C 6,7 C 98 % 1005,4 hPa 0,0 l/m 0 min 0 min 0 W/m 12,9 km/h (3 Bft) 97,83 %
24.12.2021 08:32 8,4 C 7,8 C 6,7 C 98 % 1005,4 hPa 0,0 l/m 0 min 0 min 0 W/m 29,0 km/h (5 Bft) 97,87 %
24.12.2021 08:34 8,4 C 7,8 C 6,7 C 98 % 1005,4 hPa 0,0 l/m 0 min 0 min 0 W/m 12,9 km/h (3 Bft) 93,62 %
24.12.2021 08:36 8,4 C 7,8 C 6,7 C 98 % 1005,4 hPa 0,0 l/m 0 min 0 min 0 W/m 9,7 km/h (2 Bft) 98,31 %
24.12.2021 08:38 8,4 C 7,8 C 6,7 C 98 % 1005,4 hPa 0,0 l/m 0 min 0 min 0 W/m 12,9 km/h (3 Bft) 97,14 %
24.12.2021 08:40 8,4 C 7,8 C 6,7 C 98 % 1005,5 hPa 0,0 l/m 0 min 0 min 0 W/m 12,9 km/h (3 Bft) 97,83 %
24.12.2021 08:42 8,4 C 7,8 C 6,7 C 98 % 1005,4 hPa 0,0 l/m 0 min 0 min 0 W/m 19,3 km/h (3 Bft) 95,83 %
24.12.2021 08:43 8,4 C 7,8 C 6,7 C 98 % 1005,5 hPa 0,0 l/m 0 min 0 min 0 W/m 16,1 km/h (3 Bft) 95,74 %
24.12.2021 08:46 8,4 C 7,8 C 6,1 C 98 % 1005,5 hPa 0,0 l/m 0 min 0 min 0 W/m 16,1 km/h (3 Bft) 100,00 %
24.12.2021 08:48 8,4 C 7,8 C 6,7 C 98 % 1005,4 hPa 0,0 l/m 0 min 0 min 0 W/m 19,3 km/h (3 Bft) 100,00 %
24.12.2021 08:50 8,4 C 7,8 C 6,7 C 98 % 1005,4 hPa 0,0 l/m 0 min 0 min 0 W/m 12,9 km/h (3 Bft) 97,87 %
24.12.2021 08:52 8,4 C 7,8 C 6,1 C 97 % 1005,4 hPa 0,0 l/m 0 min 0 min 0 W/m 12,9 km/h (3 Bft) 100,00 %
24.12.2021 08:54 8,4 C 7,8 C 6,7 C 97 % 1005,4 hPa 0,0 l/m 0 min 0 min 0 W/m 16,1 km/h (3 Bft) 97,87 %
24.12.2021 08:56 8,4 C 7,8 C 6,7 C 97 % 1005,4 hPa 0,0 l/m 0 min 0 min 2 W/m 6,4 km/h (2 Bft) 100,00 %
24.12.2021 08:58 8,4 C 7,8 C 6,7 C 97 % 1005,5 hPa 0,0 l/m 0 min 0 min 5 W/m 16,1 km/h (3 Bft) 100,00 %
24.12.2021 09:00 8,4 C 7,8 C 6,7 C 97 % 1005,4 hPa 0,0 l/m 0 min 0 min 5 W/m 12,9 km/h (3 Bft) 100,00 %
24.12.2021 09:02 8,4 C 7,8 C 6,7 C 97 % 1005,3 hPa 0,0 l/m 0 min 0 min 6 W/m 12,9 km/h (3 Bft) 97,87 %
24.12.2021 09:04 8,4 C 7,8 C 6,7 C 97 % 1005,3 hPa 0,0 l/m 0 min 0 min 7 W/m 19,3 km/h (3 Bft) 100,00 %
24.12.2021 09:06 8,4 C 7,8 C 6,7 C 97 % 1005,3 hPa 0,0 l/m 0 min 0 min 8 W/m 16,1 km/h (3 Bft) 100,00 %
24.12.2021 09:08 8,4 C 7,8 C 6,7 C 97 % 1005,4 hPa 0,0 l/m 0 min 0 min 9 W/m 16,1 km/h (3 Bft) 100,00 %
24.12.2021 09:10 8,4 C 7,8 C 6,7 C 97 % 1005,4 hPa 0,0 l/m 0 min 0 min 8 W/m 9,7 km/h (2 Bft) 100,00 %
24.12.2021 09:12 8,4 C 7,8 C 6,7 C 97 % 1005,4 hPa 0,0 l/m 0 min 0 min 10 W/m 16,1 km/h (3 Bft) 100,00 %
24.12.2021 09:14 8,4 C 7,8 C 6,7 C 97 % 1005,4 hPa 0,0 l/m 0 min 0 min 11 W/m 16,1 km/h (3 Bft) 100,00 %
24.12.2021 09:16 8,4 C 7,8 C 6,7 C 97 % 1005,4 hPa 0,0 l/m 0 min 0 min 9 W/m 12,9 km/h (3 Bft) 100,00 %
24.12.2021 09:18 8,4 C 7,8 C 6,7 C 97 % 1005,4 hPa 0,0 l/m 0 min 0 min 11 W/m 12,9 km/h (3 Bft) 100,00 %
24.12.2021 09:20 8,4 C 7,8 C 6,7 C 97 % 1005,3 hPa 0,0 l/m 0 min 0 min 10 W/m 12,9 km/h (3 Bft) 97,87 %
24.12.2021 09:22 8,4 C 7,8 C 6,7 C 97 % 1005,3 hPa 0,0 l/m 0 min 0 min 9 W/m 12,9 km/h (3 Bft) 100,00 %
24.12.2021 09:24 8,4 C 7,8 C 6,7 C 97 % 1005,3 hPa 0,0 l/m 0 min 0 min 10 W/m 16,1 km/h (3 Bft) 97,87 %
24.12.2021 09:26 8,4 C 7,8 C 6,7 C 97 % 1005,4 hPa 0,0 l/m 0 min 0 min 11 W/m 12,9 km/h (3 Bft) 97,83 %
24.12.2021 09:28 8,4 C 7,8 C 6,7 C 97 % 1005,3 hPa 0,0 l/m 0 min 0 min 12 W/m 16,1 km/h (3 Bft) 100,00 %
24.12.2021 09:30 8,4 C 7,8 C 6,7 C 97 % 1005,3 hPa 0,0 l/m 0 min 0 min 15 W/m 12,9 km/h (3 Bft) 100,00 %
24.12.2021 09:32 8,4 C 7,8 C 6,7 C 97 % 1005,2 hPa 0,0 l/m 0 min 0 min 18 W/m 19,3 km/h (3 Bft) 100,00 %
24.12.2021 09:34 8,4 C 7,8 C 6,7 C 97 % 1005,2 hPa 0,0 l/m 0 min 0 min 20 W/m 19,3 km/h (3 Bft) 97,87 %
24.12.2021 09:36 8,4 C 7,8 C 6,7 C 97 % 1005,2 hPa 0,0 l/m 0 min 0 min 22 W/m 12,9 km/h (3 Bft) 97,87 %
24.12.2021 09:38 8,4 C 7,8 C 6,7 C 97 % 1005,2 hPa 0,0 l/m 0 min 0 min 20 W/m 19,3 km/h (3 Bft) 97,87 %
24.12.2021 09:40 8,4 C 7,8 C 6,7 C 97 % 1005,3 hPa 0,0 l/m 0 min 0 min 16 W/m 16,1 km/h (3 Bft) 95,65 %
24.12.2021 09:42 8,4 C 7,8 C 6,7 C 97 % 1005,2 hPa 0,0 l/m 0 min 0 min 13 W/m 16,1 km/h (3 Bft) 91,49 %
24.12.2021 09:44 8,4 C 7,8 C 6,7 C 97 % 1005,2 hPa 0,0 l/m 0 min 0 min 13 W/m 19,3 km/h (3 Bft) 95,74 %
24.12.2021 09:46 8,4 C 7,8 C 6,7 C 97 % 1005,3 hPa 0,0 l/m 0 min 0 min 13 W/m 16,1 km/h (3 Bft) 95,74 %
24.12.2021 09:48 8,4 C 7,8 C 6,7 C 97 % 1005,2 hPa 0,0 l/m 0 min 0 min 12 W/m 22,5 km/h (4 Bft) 95,74 %
24.12.2021 09:50 8,4 C 7,8 C 6,7 C 97 % 1005,2 hPa 0,0 l/m 0 min 0 min 13 W/m 6,4 km/h (2 Bft) 95,65 %
24.12.2021 09:52 8,4 C 7,8 C 6,7 C 97 % 1005,2 hPa 0,0 l/m 0 min 0 min 12 W/m 12,9 km/h (3 Bft) 93,62 %
24.12.2021 09:54 8,4 C 7,8 C 6,7 C 97 % 1005,2 hPa 0,0 l/m 0 min 0 min 13 W/m 12,9 km/h (3 Bft) 93,62 %
24.12.2021 09:56 8,4 C 7,8 C 6,7 C 97 % 1005,2 hPa 0,0 l/m 0 min 0 min 12 W/m 25,7 km/h (4 Bft) 95,74 %
24.12.2021 09:58 8,4 C 7,8 C 6,7 C 97 % 1005,1 hPa 0,0 l/m 0 min 0 min 11 W/m 16,1 km/h (3 Bft) 91,49 %
24.12.2021 10:00 8,4 C 7,8 C 6,7 C 97 % 1005,1 hPa 0,0 l/m 0 min 0 min 13 W/m 16,1 km/h (3 Bft) 95,74 %
24.12.2021 10:02 8,4 C 7,8 C 6,7 C 97 % 1005,1 hPa 0,0 l/m 0 min 0 min 15 W/m 41,8 km/h (6 Bft) 93,48 %
24.12.2021 10:04 8,4 C 7,8 C 6,7 C 97 % 1005,1 hPa 0,0 l/m 0 min 0 min 16 W/m 25,7 km/h (4 Bft) 95,74 %
24.12.2021 10:06 8,4 C 7,8 C 6,7 C 97 % 1005,0 hPa 0,0 l/m 0 min 0 min 26 W/m 12,9 km/h (3 Bft) 95,74 %
24.12.2021 10:08 8,4 C 7,8 C 6,7 C 97 % 1005,0 hPa 0,0 l/m 0 min 0 min 39 W/m 12,9 km/h (3 Bft) 95,74 %
24.12.2021 10:10 8,5 C 7,8 C 6,7 C 97 % 1005,0 hPa 0,0 l/m 0 min 0 min 51 W/m 16,1 km/h (3 Bft) 97,87 %
24.12.2021 10:12 8,5 C 7,8 C 6,7 C 97 % 1005,0 hPa 0,0 l/m 0 min 0 min 54 W/m 19,3 km/h (3 Bft) 97,87 %
24.12.2021 10:14 8,5 C 7,8 C 6,7 C 97 % 1005,0 hPa 0,0 l/m 0 min 0 min 47 W/m 12,9 km/h (3 Bft) 97,83 %
24.12.2021 10:16 8,5 C 8,3 C 6,7 C 97 % 1004,9 hPa 0,0 l/m 0 min 0 min 43 W/m 12,9 km/h (3 Bft) 95,74 %
24.12.2021 10:18 8,5 C 8,3 C 6,7 C 97 % 1005,0 hPa 0,0 l/m 0 min 0 min 40 W/m 16,1 km/h (3 Bft) 97,87 %
24.12.2021 10:20 8,5 C 8,3 C 6,7 C 97 % 1005,0 hPa 0,0 l/m 0 min 0 min 37 W/m 19,3 km/h (3 Bft) 95,74 %
24.12.2021 10:22 8,6 C 8,3 C 6,7 C 97 % 1005,0 hPa 0,0 l/m 0 min 0 min 33 W/m 16,1 km/h (3 Bft) 97,87 %
24.12.2021 10:24 8,6 C 7,8 C 6,7 C 97 % 1005,0 hPa 0,0 l/m 0 min 0 min 29 W/m 16,1 km/h (3 Bft) 97,87 %
24.12.2021 10:26 8,6 C 7,8 C 6,7 C 97 % 1005,0 hPa 0,0 l/m 0 min 0 min 25 W/m 6,4 km/h (2 Bft) 97,83 %
24.12.2021 10:28 8,6 C 7,8 C 6,7 C 97 % 1005,0 hPa 0,0 l/m 0 min 0 min 25 W/m 6,4 km/h (2 Bft) 97,87 %
24.12.2021 10:30 8,6 C 7,8 C 6,7 C 97 % 1005,0 hPa 0,0 l/m 0 min 0 min 25 W/m 25,7 km/h (4 Bft) 95,74 %
24.12.2021 10:32 8,6 C 7,8 C 6,7 C 97 % 1004,9 hPa 0,0 l/m 0 min 0 min 24 W/m 19,3 km/h (3 Bft) 100,00 %
24.12.2021 10:34 8,6 C 7,8 C 6,7 C 97 % 1004,9 hPa 0,0 l/m 0 min 0 min 28 W/m 12,9 km/h (3 Bft) 100,00 %
24.12.2021 10:36 8,6 C 7,8 C 6,7 C 97 % 1004,9 hPa 0,0 l/m 0 min 0 min 39 W/m 12,9 km/h (3 Bft) 100,00 %
24.12.2021 10:38 8,6 C 8,3 C 6,7 C 97 % 1004,8 hPa 0,0 l/m 0 min 0 min 43 W/m 12,9 km/h (3 Bft) 100,00 %
24.12.2021 10:40 8,6 C 8,3 C 6,7 C 97 % 1004,8 hPa 0,0 l/m 0 min 0 min 55 W/m 25,7 km/h (4 Bft) 100,00 %
24.12.2021 10:42 8,6 C 8,3 C 6,7 C 97 % 1004,8 hPa 0,0 l/m 0 min 0 min 61 W/m 19,3 km/h (3 Bft) 100,00 %
24.12.2021 10:44 8,6 C 8,3 C 6,7 C 97 % 1004,8 hPa 0,0 l/m 0 min 0 min 57 W/m 12,9 km/h (3 Bft) 100,00 %
24.12.2021 10:46 8,6 C 8,3 C 6,7 C 97 % 1004,7 hPa 0,0 l/m 0 min 0 min 65 W/m 19,3 km/h (3 Bft) 95,74 %
24.12.2021 10:48 8,6 C 8,3 C 6,7 C 97 % 1004,8 hPa 0,0 l/m 0 min 0 min 84 W/m 19,3 km/h (3 Bft) 100,00 %
24.12.2021 10:50 8,7 C 8,3 C 6,7 C 97 % 1004,8 hPa 0,0 l/m 0 min 0 min 101 W/m 12,9 km/h (3 Bft) 97,83 %
24.12.2021 10:52 8,7 C 8,3 C 6,7 C 97 % 1004,8 hPa 0,0 l/m 2 min 0 min 126 W/m 9,7 km/h (2 Bft) 97,87 %
24.12.2021 10:54 8,7 C 8,9 C 6,7 C 97 % 1004,8 hPa 0,0 l/m 2 min 0 min 134 W/m 25,7 km/h (4 Bft) 97,87 %
24.12.2021 10:56 8,7 C 8,9 C 6,7 C 97 % 1004,7 hPa 0,0 l/m 0 min 0 min 116 W/m 12,9 km/h (3 Bft) 97,87 %
24.12.2021 10:58 8,8 C 8,9 C 6,7 C 97 % 1004,7 hPa 0,0 l/m 0 min 0 min 111 W/m 19,3 km/h (3 Bft) 97,87 %
24.12.2021 11:00 8,8 C 8,9 C 6,7 C 97 % 1004,7 hPa 0,0 l/m 0 min 0 min 89 W/m 16,1 km/h (3 Bft) 97,87 %
24.12.2021 11:02 8,8 C 8,3 C 6,7 C 97 % 1004,8 hPa 0,0 l/m 0 min 0 min 81 W/m 12,9 km/h (3 Bft) 96,15 %
24.12.2021 11:04 8,8 C 8,9 C 6,7 C 96 % 1004,7 hPa 0,0 l/m 0 min 0 min 101 W/m 12,9 km/h (3 Bft) 97,56 %
24.12.2021 11:06 8,8 C 8,9 C 6,7 C 96 % 1004,7 hPa 0,0 l/m 0 min 0 min 116 W/m 16,1 km/h (3 Bft) 96,23 %
24.12.2021 11:08 8,8 C 8,9 C 6,7 C 96 % 1004,7 hPa 0,0 l/m 0 min 0 min 119 W/m 12,9 km/h (3 Bft) 97,87 %
24.12.2021 11:10 8,8 C 8,9 C 7,2 C 96 % 1004,7 hPa 0,0 l/m 0 min 0 min 93 W/m 12,9 km/h (3 Bft) 95,74 %
24.12.2021 11:12 8,9 C 8,9 C 7,2 C 96 % 1004,8 hPa 0,0 l/m 0 min 0 min 72 W/m 12,9 km/h (3 Bft) 97,83 %
24.12.2021 11:14 8,9 C 8,9 C 6,7 C 96 % 1004,8 hPa 0,0 l/m 0 min 0 min 62 W/m 16,1 km/h (3 Bft) 97,87 %
24.12.2021 11:16 8,9 C 8,3 C 6,7 C 96 % 1004,8 hPa 0,0 l/m 0 min 0 min 56 W/m 19,3 km/h (3 Bft) 93,62 %
24.12.2021 11:18 8,9 C 8,3 C 6,7 C 96 % 1004,8 hPa 0,0 l/m 0 min 0 min 50 W/m 16,1 km/h (3 Bft) 95,74 %
24.12.2021 11:20 8,9 C 8,3 C 6,7 C 96 % 1004,8 hPa 0,0 l/m 0 min 0 min 51 W/m 16,1 km/h (3 Bft) 97,87 %
24.12.2021 11:22 8,9 C 8,3 C 6,7 C 96 % 1004,8 hPa 0,0 l/m 0 min 0 min 47 W/m 12,9 km/h (3 Bft) 97,83 %
24.12.2021 11:24 8,8 C 8,3 C 6,7 C 96 % 1004,8 hPa 0,0 l/m 0 min 0 min 45 W/m 29,0 km/h (5 Bft) 97,87 %
24.12.2021 11:26 8,9 C 8,3 C 6,7 C 96 % 1004,9 hPa 0,0 l/m 0 min 0 min 40 W/m 12,9 km/h (3 Bft) 95,74 %
24.12.2021 11:28 8,8 C 8,3 C 6,7 C 96 % 1004,9 hPa 0,0 l/m 0 min 0 min 36 W/m 12,9 km/h (3 Bft) 95,74 %
24.12.2021 11:30 8,8 C 8,3 C 6,7 C 96 % 1004,9 hPa 0,0 l/m 0 min 0 min 26 W/m 9,7 km/h (2 Bft) 97,87 %
24.12.2021 11:32 8,8 C 8,3 C 6,7 C 95 % 1005,0 hPa 0,0 l/m 0 min 0 min 32 W/m 12,9 km/h (3 Bft) 97,87 %
24.12.2021 11:34 8,8 C 8,3 C 6,7 C 95 % 1005,0 hPa 0,0 l/m 0 min 0 min 41 W/m 12,9 km/h (3 Bft) 97,87 %
24.12.2021 11:36 8,8 C 8,3 C 6,7 C 95 % 1004,9 hPa 0,0 l/m 0 min 0 min 35 W/m 12,9 km/h (3 Bft) 100,00 %
24.12.2021 11:38 8,8 C 8,3 C 6,7 C 95 % 1004,9 hPa 0,0 l/m 0 min 0 min 32 W/m 19,3 km/h (3 Bft) 100,00 %
24.12.2021 11:40 8,8 C 8,3 C 6,7 C 95 % 1004,9 hPa 0,0 l/m 0 min 0 min 25 W/m 22,5 km/h (4 Bft) 97,87 %
24.12.2021 11:42 8,8 C 8,3 C 6,7 C 95 % 1004,9 hPa 0,0 l/m 0 min 0 min 22 W/m 22,5 km/h (4 Bft) 93,62 %
24.12.2021 11:44 8,8 C 8,3 C 6,7 C 95 % 1004,8 hPa 0,0 l/m 0 min 0 min 20 W/m 12,9 km/h (3 Bft) 95,74 %
24.12.2021 11:46 8,8 C 8,3 C 6,7 C 95 % 1004,8 hPa 0,0 l/m 0 min 0 min 20 W/m 12,9 km/h (3 Bft) 97,83 %
24.12.2021 11:48 8,8 C 8,3 C 6,7 C 95 % 1004,9 hPa 0,0 l/m 0 min 0 min 18 W/m 12,9 km/h (3 Bft) 97,87 %
24.12.2021 11:50 8,8 C 8,3 C 6,7 C 95 % 1004,8 hPa 0,0 l/m 0 min 0 min 18 W/m 12,9 km/h (3 Bft) 97,87 %
24.12.2021 11:52 8,8 C 8,3 C 6,7 C 95 % 1004,8 hPa 0,0 l/m 0 min 0 min 23 W/m 6,4 km/h (2 Bft) 97,87 %
24.12.2021 11:54 8,8 C 8,3 C 6,7 C 95 % 1004,8 hPa 0,0 l/m 0 min 0 min 37 W/m 16,1 km/h (3 Bft) 97,87 %
24.12.2021 11:56 8,8 C 8,3 C 6,7 C 95 % 1004,8 hPa 0,0 l/m 0 min 0 min 45 W/m 16,1 km/h (3 Bft) 97,83 %
24.12.2021 11:58 8,8 C 8,3 C 6,7 C 95 % 1004,9 hPa 0,0 l/m 0 min 0 min 43 W/m 12,9 km/h (3 Bft) 97,87 %
24.12.2021 12:00 8,8 C 8,3 C 6,7 C 95 % 1004,8 hPa 0,0 l/m 0 min 0 min 41 W/m 16,1 km/h (3 Bft) 95,74 %
24.12.2021 12:02 8,8 C 8,3 C 6,7 C 95 % 1004,8 hPa 0,0 l/m 0 min 0 min 43 W/m 12,9 km/h (3 Bft) 94,59 %
24.12.2021 12:04 8,8 C 8,3 C 6,7 C 95 % 1004,8 hPa 0,0 l/m 0 min 0 min 46 W/m 12,9 km/h (3 Bft) 95,74 %
24.12.2021 12:08 8,8 C 8,3 C 6,7 C 95 % 1004,8 hPa 0,0 l/m 0 min 0 min 63 W/m 19,3 km/h (3 Bft) 96,84 %
24.12.2021 12:10 8,8 C 8,3 C 6,7 C 95 % 1004,8 hPa 0,0 l/m 0 min 0 min 58 W/m 9,7 km/h (2 Bft) 97,83 %
24.12.2021 12:12 8,8 C 8,3 C 6,7 C 95 % 1004,8 hPa 0,0 l/m 0 min 0 min 50 W/m 19,3 km/h (3 Bft) 93,62 %
24.12.2021 12:14 8,9 C 8,3 C 6,7 C 95 % 1004,7 hPa 0,0 l/m 0 min 0 min 53 W/m 16,1 km/h (3 Bft) 97,87 %
24.12.2021 12:16 8,9 C 8,3 C 6,7 C 95 % 1004,7 hPa 0,0 l/m 0 min 0 min 46 W/m 12,9 km/h (3 Bft) 97,87 %
24.12.2021 12:18 8,9 C 8,3 C 6,7 C 95 % 1004,7 hPa 0,0 l/m 0 min 0 min 41 W/m 12,9 km/h (3 Bft) 100,00 %
24.12.2021 12:20 8,9 C 8,3 C 6,7 C 95 % 1004,7 hPa 0,0 l/m 0 min 0 min 48 W/m 16,1 km/h (3 Bft) 97,87 %
24.12.2021 12:22 8,9 C 8,3 C 6,7 C 95 % 1004,6 hPa 0,0 l/m 0 min 0 min 59 W/m 16,1 km/h (3 Bft) 100,00 %
24.12.2021 12:24 8,9 C 8,3 C 6,7 C 95 % 1004,7 hPa 0,0 l/m 0 min 0 min 54 W/m 12,9 km/h (3 Bft) 97,87 %
24.12.2021 12:26 8,9 C 8,3 C 6,7 C 95 % 1004,7 hPa 0,0 l/m 0 min 0 min 35 W/m 22,5 km/h (4 Bft) 97,87 %
24.12.2021 12:28 8,9 C 8,3 C 6,7 C 95 % 1004,7 hPa 0,0 l/m 0 min 0 min 33 W/m 25,7 km/h (4 Bft) 97,87 %
24.12.2021 12:30 8,9 C 8,3 C 6,7 C 95 % 1004,7 hPa 0,0 l/m 0 min 0 min 25 W/m 16,1 km/h (3 Bft) 97,87 %
24.12.2021 12:32 8,9 C 8,3 C 6,7 C 95 % 1004,7 hPa 0,0 l/m 0 min 0 min 21 W/m 16,1 km/h (3 Bft) 95,92 %
24.12.2021 12:34 8,9 C 8,3 C 6,7 C 94 % 1004,7 hPa 0,0 l/m 0 min 0 min 19 W/m 6,4 km/h (2 Bft) 97,83 %
24.12.2021 12:36 8,9 C 8,3 C 6,7 C 94 % 1004,7 hPa 0,0 l/m 0 min 0 min 22 W/m 19,3 km/h (3 Bft) 97,87 %
24.12.2021 12:38 8,9 C 8,3 C 6,7 C 94 % 1004,7 hPa 0,0 l/m 0 min 0 min 28 W/m 16,1 km/h (3 Bft) 97,87 %
24.12.2021 12:40 8,9 C 8,3 C 6,7 C 94 % 1004,6 hPa 0,0 l/m 0 min 0 min 36 W/m 22,5 km/h (4 Bft) 97,87 %
24.12.2021 12:42 8,9 C 8,3 C 6,7 C 94 % 1004,7 hPa 0,0 l/m 0 min 0 min 36 W/m 16,1 km/h (3 Bft) 97,87 %
24.12.2021 12:44 8,9 C 8,3 C 6,7 C 94 % 1004,7 hPa 0,0 l/m 0 min 0 min 36 W/m 16,1 km/h (3 Bft) 97,83 %
24.12.2021 12:46 8,9 C 8,3 C 6,7 C 94 % 1004,8 hPa 0,0 l/m 0 min 0 min 37 W/m 25,7 km/h (4 Bft) 95,74 %
24.12.2021 12:48 8,9 C 8,3 C 6,7 C 94 % 1004,7 hPa 0,0 l/m 0 min 0 min 36 W/m 16,1 km/h (3 Bft) 97,87 %
24.12.2021 12:50 8,9 C 8,3 C 6,7 C 94 % 1004,6 hPa 0,0 l/m 0 min 0 min 38 W/m 16,1 km/h (3 Bft) 97,87 %
24.12.2021 12:52 8,9 C 8,3 C 6,7 C 94 % 1004,6 hPa 0,0 l/m 0 min 0 min 39 W/m 16,1 km/h (3 Bft) 97,87 %
24.12.2021 12:54 8,9 C 8,3 C 6,7 C 94 % 1004,6 hPa 0,0 l/m 0 min 0 min 36 W/m 19,3 km/h (3 Bft) 97,87 %
24.12.2021 12:56 8,9 C 8,3 C 6,7 C 94 % 1004,5 hPa 0,0 l/m 0 min 0 min 32 W/m 12,9 km/h (3 Bft) 97,83 %
24.12.2021 12:58 8,9 C 8,3 C 6,7 C 94 % 1004,6 hPa 0,0 l/m 0 min 0 min 30 W/m 12,9 km/h (3 Bft) 97,87 %
24.12.2021 13:00 8,9 C 8,3 C 6,7 C 94 % 1004,5 hPa 0,0 l/m 0 min 0 min 31 W/m 12,9 km/h (3 Bft) 97,87 %
24.12.2021 13:02 8,9 C 8,3 C 6,7 C 94 % 1004,6 hPa 0,0 l/m 0 min 0 min 26 W/m 12,9 km/h (3 Bft) 97,92 %
24.12.2021 13:04 8,9 C 8,3 C 6,7 C 94 % 1004,6 hPa 0,0 l/m 0 min 0 min 25 W/m 12,9 km/h (3 Bft) 97,87 %
24.12.2021 13:06 8,9 C 8,3 C 6,7 C 95 % 1004,6 hPa 0,0 l/m 0 min 0 min 27 W/m 16,1 km/h (3 Bft) 95,74 %
24.12.2021 13:08 8,8 C 8,3 C 6,7 C 95 % 1004,6 hPa 0,0 l/m 0 min 0 min 25 W/m 12,9 km/h (3 Bft) 97,83 %
24.12.2021 13:10 8,8 C 8,3 C 6,7 C 95 % 1004,6 hPa 0,0 l/m 0 min 0 min 30 W/m 19,3 km/h (3 Bft) 97,87 %
24.12.2021 13:12 8,8 C 8,3 C 6,7 C 95 % 1004,6 hPa 0,0 l/m 0 min 0 min 32 W/m 12,9 km/h (3 Bft) 100,00 %
24.12.2021 13:14 8,8 C 8,3 C 6,7 C 95 % 1004,6 hPa 0,0 l/m 0 min 0 min 33 W/m 12,9 km/h (3 Bft) 100,00 %
24.12.2021 13:16 8,8 C 8,3 C 6,7 C 95 % 1004,6 hPa 0,0 l/m 0 min 0 min 37 W/m 6,4 km/h (2 Bft) 100,00 %
24.12.2021 13:18 8,8 C 8,3 C 6,7 C 95 % 1004,6 hPa 0,0 l/m 0 min 0 min 45 W/m 16,1 km/h (3 Bft) 100,00 %
24.12.2021 13:20 8,8 C 8,3 C 6,7 C 95 % 1004,6 hPa 0,0 l/m 0 min 0 min 40 W/m 12,9 km/h (3 Bft) 100,00 %
24.12.2021 13:22 8,8 C 8,3 C 6,7 C 95 % 1004,6 hPa 0,0 l/m 0 min 0 min 46 W/m 9,7 km/h (2 Bft) 97,87 %
24.12.2021 13:24 8,8 C 8,3 C 6,7 C 95 % 1004,6 hPa 0,0 l/m 0 min 0 min 50 W/m 12,9 km/h (3 Bft) 100,00 %
24.12.2021 13:26 8,8 C 8,3 C 6,7 C 95 % 1004,7 hPa 0,0 l/m 0 min 0 min 42 W/m 16,1 km/h (3 Bft) 100,00 %
24.12.2021 13:28 8,8 C 8,3 C 6,7 C 95 % 1004,7 hPa 0,0 l/m 0 min 0 min 39 W/m 16,1 km/h (3 Bft) 100,00 %
24.12.2021 13:30 8,8 C 8,3 C 6,7 C 95 % 1004,7 hPa 0,0 l/m 0 min 0 min 35 W/m 12,9 km/h (3 Bft) 100,00 %
24.12.2021 13:32 8,8 C 8,3 C 6,7 C 95 % 1004,7 hPa 0,0 l/m 0 min 0 min 31 W/m 12,9 km/h (3 Bft) 97,83 %
24.12.2021 13:34 8,8 C 8,3 C 6,7 C 95 % 1004,7 hPa 0,0 l/m 0 min 0 min 32 W/m 6,4 km/h (2 Bft) 97,87 %
24.12.2021 13:36 8,8 C 8,3 C 6,7 C 95 % 1004,7 hPa 0,0 l/m 0 min 0 min 28 W/m 6,4 km/h (2 Bft) 93,62 %
24.12.2021 13:38 8,8 C 8,3 C 6,7 C 95 % 1004,7 hPa 0,0 l/m 0 min 0 min 27 W/m 12,9 km/h (3 Bft) 97,87 %
24.12.2021 13:40 8,8 C 8,3 C 6,7 C 95 % 1004,6 hPa 0,0 l/m 0 min 0 min 28 W/m 12,9 km/h (3 Bft) 97,87 %
24.12.2021 13:42 8,8 C 8,3 C 6,7 C 95 % 1004,7 hPa 0,0 l/m 0 min 0 min 26 W/m 6,4 km/h (2 Bft) 97,83 %
24.12.2021 13:44 8,8 C 8,3 C 6,7 C 95 % 1004,7 hPa 0,0 l/m 0 min 0 min 34 W/m 16,1 km/h (3 Bft) 97,87 %
24.12.2021 13:46 8,8 C 8,3 C 6,7 C 95 % 1004,6 hPa 0,0 l/m 0 min 0 min 44 W/m 16,1 km/h (3 Bft) 93,62 %
24.12.2021 13:48 8,8 C 8,3 C 6,7 C 95 % 1004,6 hPa 0,0 l/m 0 min 0 min 47 W/m 9,7 km/h (2 Bft) 93,62 %
24.12.2021 13:50 8,9 C 8,3 C 6,7 C 95 % 1004,6 hPa 0,0 l/m 0 min 0 min 51 W/m 16,1 km/h (3 Bft) 95,74 %
24.12.2021 13:52 8,9 C 8,3 C 6,7 C 95 % 1004,5 hPa 0,0 l/m 0 min 0 min 55 W/m 12,9 km/h (3 Bft) 95,74 %
24.12.2021 13:54 8,9 C 8,3 C 6,7 C 95 % 1004,5 hPa 0,0 l/m 0 min 0 min 59 W/m 19,3 km/h (3 Bft) 93,48 %
24.12.2021 13:56 8,9 C 8,3 C 6,7 C 95 % 1004,4 hPa 0,0 l/m 0 min 0 min 65 W/m 12,9 km/h (3 Bft) 91,49 %
24.12.2021 13:58 8,9 C 8,3 C 6,7 C 95 % 1004,4 hPa 0,0 l/m 0 min 0 min 68 W/m 12,9 km/h (3 Bft) 93,62 %
24.12.2021 14:00 8,9 C 8,3 C 6,7 C 94 % 1004,4 hPa 0,0 l/m 0 min 0 min 69 W/m 9,7 km/h (2 Bft) 93,62 %
24.12.2021 14:02 8,9 C 8,3 C 7,2 C 94 % 1004,4 hPa 0,0 l/m 0 min 0 min 67 W/m 19,3 km/h (3 Bft) 96,30 %
24.12.2021 14:04 8,9 C 8,3 C 7,2 C 94 % 1004,4 hPa 0,0 l/m 0 min 0 min 62 W/m 16,1 km/h (3 Bft) 95,65 %
24.12.2021 14:06 8,9 C 8,3 C 7,2 C 95 % 1004,4 hPa 0,0 l/m 0 min 0 min 64 W/m 12,9 km/h (3 Bft) 93,62 %
24.12.2021 14:08 9,0 C 8,9 C 7,2 C 94 % 1004,4 hPa 0,0 l/m 0 min 0 min 76 W/m 12,9 km/h (3 Bft) 94,74 %
24.12.2021 14:10 9,0 C 8,9 C 7,2 C 94 % 1004,4 hPa 0,0 l/m 0 min 0 min 88 W/m 16,1 km/h (3 Bft) 93,62 %
24.12.2021 14:12 9,0 C 8,9 C 7,2 C 94 % 1004,4 hPa 0,0 l/m 0 min 0 min 100 W/m 16,1 km/h (3 Bft) 91,49 %
24.12.2021 14:14 9,1 C 8,9 C 7,2 C 94 % 1004,3 hPa 0,0 l/m 0 min 0 min 103 W/m 6,4 km/h (2 Bft) 95,74 %
24.12.2021 14:16 9,1 C 8,9 C 7,2 C 94 % 1004,4 hPa 0,0 l/m 0 min 0 min 99 W/m 6,4 km/h (2 Bft) 95,74 %
24.12.2021 14:18 9,1 C 9,4 C 7,2 C 94 % 1004,3 hPa 0,0 l/m 0 min 0 min 95 W/m 6,4 km/h (2 Bft) 97,83 %
24.12.2021 14:20 9,1 C 9,4 C 7,2 C 94 % 1004,4 hPa 0,0 l/m 0 min 0 min 91 W/m 12,9 km/h (3 Bft) 97,87 %
24.12.2021 14:22 9,1 C 8,9 C 7,2 C 94 % 1004,4 hPa 0,0 l/m 0 min 0 min 87 W/m 12,9 km/h (3 Bft) 100,00 %
24.12.2021 14:24 9,1 C 8,9 C 7,2 C 94 % 1004,4 hPa 0,0 l/m 0 min 0 min 80 W/m 12,9 km/h (3 Bft) 100,00 %
24.12.2021 14:26 9,1 C 8,9 C 7,2 C 94 % 1004,4 hPa 0,0 l/m 0 min 0 min 63 W/m 9,7 km/h (2 Bft) 97,87 %
24.12.2021 14:28 9,2 C 8,9 C 7,2 C 94 % 1004,4 hPa 0,0 l/m 0 min 0 min 51 W/m 6,4 km/h (2 Bft) 100,00 %
24.12.2021 14:30 9,2 C 8,9 C 7,2 C 94 % 1004,4 hPa 0,0 l/m 0 min 0 min 49 W/m 12,9 km/h (3 Bft) 100,00 %
24.12.2021 14:32 9,2 C 8,9 C 7,2 C 94 % 1004,4 hPa 0,0 l/m 0 min 0 min 53 W/m 3,2 km/h (1 Bft) 100,00 %
24.12.2021 14:34 9,2 C 8,9 C 7,2 C 94 % 1004,4 hPa 0,0 l/m 0 min 0 min 43 W/m 12,9 km/h (3 Bft) 97,87 %
24.12.2021 14:36 9,2 C 8,9 C 7,2 C 94 % 1004,4 hPa 0,0 l/m 0 min 0 min 37 W/m 12,9 km/h (3 Bft) 100,00 %
24.12.2021 14:38 9,2 C 8,9 C 7,2 C 94 % 1004,5 hPa 0,0 l/m 0 min 0 min 30 W/m 12,9 km/h (3 Bft) 100,00 %
24.12.2021 14:40 9,2 C 8,3 C 7,2 C 94 % 1004,4 hPa 0,0 l/m 0 min 0 min 30 W/m 9,7 km/h (2 Bft) 100,00 %
24.12.2021 14:42 9,1 C 8,3 C 7,2 C 94 % 1004,4 hPa 0,0 l/m 0 min 0 min 27 W/m 6,4 km/h (2 Bft) 100,00 %
24.12.2021 14:44 9,1 C 8,3 C 7,2 C 94 % 1004,5 hPa 0,0 l/m 0 min 0 min 35 W/m 16,1 km/h (3 Bft) 100,00 %
24.12.2021 14:46 9,1 C 8,3 C 7,2 C 94 % 1004,4 hPa 0,0 l/m 0 min 0 min 30 W/m 12,9 km/h (3 Bft) 100,00 %
24.12.2021 14:48 9,1 C 8,3 C 7,2 C 94 % 1004,5 hPa 0,0 l/m 0 min 0 min 29 W/m 12,9 km/h (3 Bft) 100,00 %
24.12.2021 14:50 9,1 C 8,3 C 7,2 C 94 % 1004,5 hPa 0,0 l/m 0 min 0 min 38 W/m 12,9 km/h (3 Bft) 100,00 %
24.12.2021 14:52 9,1 C 8,3 C 7,2 C 94 % 1004,5 hPa 0,0 l/m 0 min 0 min 45 W/m 25,7 km/h (4 Bft) 100,00 %
24.12.2021 14:54 9,1 C 8,3 C 7,2 C 93 % 1004,4 hPa 0,0 l/m 0 min 0 min 41 W/m 12,9 km/h (3 Bft) 100,00 %
24.12.2021 14:56 9,1 C 8,3 C 7,2 C 94 % 1004,5 hPa 0,0 l/m 0 min 0 min 35 W/m 12,9 km/h (3 Bft) 100,00 %
24.12.2021 14:58 9,1 C 8,3 C 7,2 C 93 % 1004,4 hPa 0,0 l/m 0 min 0 min 33 W/m 19,3 km/h (3 Bft) 97,87 %
24.12.2021 15:00 9,1 C 8,3 C 7,2 C 93 % 1004,4 hPa 0,0 l/m 0 min 0 min 42 W/m 12,9 km/h (3 Bft) 100,00 %
24.12.2021 15:02 9,1 C 8,9 C 7,2 C 93 % 1004,4 hPa 0,0 l/m 0 min 0 min 40 W/m 16,1 km/h (3 Bft) 100,00 %
24.12.2021 15:04 9,1 C 8,3 C 7,2 C 93 % 1004,4 hPa 0,0 l/m 0 min 0 min 34 W/m 12,9 km/h (3 Bft) 100,00 %
24.12.2021 15:06 9,1 C 8,3 C 7,2 C 94 % 1004,4 hPa 0,0 l/m 0 min 0 min 34 W/m 9,7 km/h (2 Bft) 97,87 %
24.12.2021 15:08 9,1 C 8,3 C 7,2 C 93 % 1004,3 hPa 0,0 l/m 0 min 0 min 35 W/m 6,4 km/h (2 Bft) 100,00 %
24.12.2021 15:10 9,1 C 8,3 C 7,2 C 93 % 1004,4 hPa 0,0 l/m 0 min 0 min 34 W/m 19,3 km/h (3 Bft) 100,00 %
24.12.2021 15:12 9,1 C 8,3 C 7,2 C 93 % 1004,3 hPa 0,0 l/m 0 min 0 min 31 W/m 6,4 km/h (2 Bft) 100,00 %
24.12.2021 15:14 9,1 C 8,3 C 7,2 C 93 % 1004,4 hPa 0,0 l/m 0 min 0 min 28 W/m 12,9 km/h (3 Bft) 97,87 %
24.12.2021 15:16 9,0 C 8,3 C 7,2 C 93 % 1004,4 hPa 0,0 l/m 0 min 0 min 23 W/m 6,4 km/h (2 Bft) 97,83 %
24.12.2021 15:18 9,0 C 8,3 C 6,7 C 93 % 1004,3 hPa 0,0 l/m 0 min 0 min 19 W/m 9,7 km/h (2 Bft) 97,87 %
24.12.2021 15:20 9,0 C 8,3 C 6,7 C 93 % 1004,3 hPa 0,0 l/m 0 min 0 min 19 W/m 12,9 km/h (3 Bft) 95,74 %
24.12.2021 15:22 8,9 C 8,3 C 6,7 C 93 % 1004,3 hPa 0,0 l/m 0 min 0 min 20 W/m 12,9 km/h (3 Bft) 97,87 %
24.12.2021 15:24 8,9 C 8,3 C 6,7 C 93 % 1004,3 hPa 0,0 l/m 0 min 0 min 21 W/m 12,9 km/h (3 Bft) 97,87 %
24.12.2021 15:26 8,9 C 8,3 C 6,7 C 94 % 1004,4 hPa 0,0 l/m 0 min 0 min 22 W/m 19,3 km/h (3 Bft) 97,87 %
24.12.2021 15:28 8,9 C 8,3 C 6,7 C 94 % 1004,4 hPa 0,0 l/m 0 min 0 min 25 W/m 12,9 km/h (3 Bft) 97,83 %
24.12.2021 15:30 8,9 C 8,3 C 6,7 C 94 % 1004,3 hPa 0,0 l/m 0 min 0 min 26 W/m 12,9 km/h (3 Bft) 97,87 %
24.12.2021 15:32 8,8 C 8,3 C 6,7 C 94 % 1004,3 hPa 0,0 l/m 0 min 0 min 26 W/m 16,1 km/h (3 Bft) 91,49 %
24.12.2021 15:34 8,8 C 8,3 C 6,7 C 94 % 1004,2 hPa 0,0 l/m 0 min 0 min 28 W/m 12,9 km/h (3 Bft) 97,87 %
24.12.2021 15:36 8,8 C 8,3 C 6,7 C 94 % 1004,2 hPa 0,0 l/m 0 min 0 min 31 W/m 16,1 km/h (3 Bft) 97,87 %
24.12.2021 15:38 8,8 C 8,3 C 6,7 C 94 % 1004,2 hPa 0,0 l/m 0 min 0 min 33 W/m 12,9 km/h (3 Bft) 97,87 %
24.12.2021 15:40 8,8 C 8,3 C 6,7 C 94 % 1004,2 hPa 0,0 l/m 0 min 0 min 32 W/m 12,9 km/h (3 Bft) 97,83 %
24.12.2021 15:42 8,7 C 7,8 C 6,7 C 94 % 1004,2 hPa 0,0 l/m 0 min 0 min 31 W/m 16,1 km/h (3 Bft) 97,87 %
24.12.2021 15:44 8,7 C 7,8 C 6,7 C 94 % 1004,2 hPa 0,0 l/m 0 min 0 min 30 W/m 16,1 km/h (3 Bft) 97,87 %
24.12.2021 15:46 8,7 C 7,8 C 6,7 C 94 % 1004,2 hPa 0,0 l/m 0 min 0 min 28 W/m 12,9 km/h (3 Bft) 97,87 %
24.12.2021 15:48 8,7 C 7,8 C 6,7 C 94 % 1004,2 hPa 0,0 l/m 0 min 0 min 26 W/m 12,9 km/h (3 Bft) 97,87 %
24.12.2021 15:50 8,6 C 7,8 C 6,7 C 94 % 1004,2 hPa 0,0 l/m 0 min 0 min 25 W/m 9,7 km/h (2 Bft) 97,87 %
24.12.2021 15:52 8,6 C 7,8 C 6,1 C 94 % 1004,2 hPa 0,0 l/m 0 min 0 min 24 W/m 6,4 km/h (2 Bft) 93,48 %
24.12.2021 15:54 8,6 C 7,8 C 6,1 C 94 % 1004,2 hPa 0,0 l/m 0 min 0 min 23 W/m 12,9 km/h (3 Bft) 95,74 %
24.12.2021 15:56 8,5 C 7,8 C 6,1 C 94 % 1004,2 hPa 0,0 l/m 0 min 0 min 22 W/m 12,9 km/h (3 Bft) 95,74 %
24.12.2021 15:58 8,5 C 7,8 C 6,1 C 94 % 1004,2 hPa 0,0 l/m 0 min 0 min 21 W/m 9,7 km/h (2 Bft) 95,74 %
24.12.2021 16:00 8,4 C 7,8 C 6,1 C 94 % 1004,2 hPa 0,0 l/m 0 min 0 min 20 W/m 22,5 km/h (4 Bft) 95,74 %
24.12.2021 16:02 8,4 C 7,8 C 6,1 C 94 % 1004,2 hPa 0,0 l/m 0 min 0 min 18 W/m 6,4 km/h (2 Bft) 97,87 %
24.12.2021 16:04 8,4 C 7,2 C 6,1 C 94 % 1004,2 hPa 0,0 l/m 0 min 0 min 17 W/m 12,9 km/h (3 Bft) 97,83 %
24.12.2021 16:06 8,4 C 7,2 C 6,1 C 94 % 1004,3 hPa 0,0 l/m 0 min 0 min 16 W/m 6,4 km/h (2 Bft) 95,74 %
24.12.2021 16:08 8,3 C 7,2 C 6,1 C 94 % 1004,3 hPa 0,0 l/m 0 min 0 min 13 W/m 6,4 km/h (2 Bft) 97,87 %
24.12.2021 16:10 8,3 C 7,2 C 6,1 C 94 % 1004,4 hPa 0,0 l/m 0 min 0 min 12 W/m 12,9 km/h (3 Bft) 95,74 %
24.12.2021 16:12 8,3 C 7,2 C 6,1 C 94 % 1004,3 hPa 0,0 l/m 0 min 0 min 11 W/m 6,4 km/h (2 Bft) 100,00 %
24.12.2021 16:14 8,2 C 7,2 C 6,1 C 94 % 1004,4 hPa 0,0 l/m 0 min 0 min 9 W/m 3,2 km/h (1 Bft) 97,83 %
24.12.2021 16:16 8,2 C 7,2 C 6,1 C 94 % 1004,3 hPa 0,0 l/m 0 min 0 min 7 W/m 6,4 km/h (2 Bft) 93,62 %
24.12.2021 16:18 8,2 C 7,2 C 6,1 C 94 % 1004,3 hPa 0,0 l/m 0 min 0 min 7 W/m 6,4 km/h (2 Bft) 97,87 %
24.12.2021 16:20 8,2 C 7,2 C 6,1 C 94 % 1004,4 hPa 0,0 l/m 0 min 0 min 5 W/m 6,4 km/h (2 Bft) 95,74 %
24.12.2021 16:22 8,1 C 7,2 C 6,1 C 94 % 1004,3 hPa 0,0 l/m 0 min 0 min 5 W/m 3,2 km/h (1 Bft) 95,74 %
24.12.2021 16:24 8,1 C 7,2 C 5,6 C 94 % 1004,3 hPa 0,0 l/m 0 min 0 min 2 W/m 6,4 km/h (2 Bft) 97,87 %
24.12.2021 16:26 8,1 C 7,2 C 5,6 C 94 % 1004,3 hPa 0,0 l/m 0 min 0 min 0 W/m 3,2 km/h (1 Bft) 95,65 %
24.12.2021 16:28 8,1 C 7,2 C 6,1 C 94 % 1004,3 hPa 0,0 l/m 0 min 0 min 0 W/m 6,4 km/h (2 Bft) 95,74 %
24.12.2021 16:30 8,1 C 7,2 C 6,1 C 94 % 1004,4 hPa 0,0 l/m 0 min 0 min 0 W/m 6,4 km/h (2 Bft) 95,74 %
24.12.2021 16:32 8,1 C 7,2 C 5,6 C 95 % 1004,4 hPa 0,0 l/m 0 min 0 min 0 W/m 6,4 km/h (2 Bft) 97,87 %
24.12.2021 16:34 8,1 C 7,2 C 5,6 C 95 % 1004,3 hPa 0,0 l/m 0 min 0 min 0 W/m 6,4 km/h (2 Bft) 97,87 %
24.12.2021 16:36 8,1 C 7,2 C 5,6 C 95 % 1004,3 hPa 0,0 l/m 0 min 0 min 0 W/m 6,4 km/h (2 Bft) 97,87 %
24.12.2021 16:38 8,0 C 7,2 C 5,6 C 95 % 1004,3 hPa 0,0 l/m 0 min 0 min 0 W/m 6,4 km/h (2 Bft) 98,08 %
24.12.2021 16:40 8,0 C 7,2 C 5,6 C 95 % 1004,3 hPa 0,0 l/m 0 min 0 min 0 W/m 6,4 km/h (2 Bft) 97,87 %
24.12.2021 16:42 8,0 C 7,2 C 5,6 C 95 % 1004,4 hPa 0,0 l/m 0 min 0 min 0 W/m 6,4 km/h (2 Bft) 97,87 %
24.12.2021 16:44 8,0 C 7,2 C 5,6 C 95 % 1004,4 hPa 0,0 l/m 0 min 0 min 0 W/m 12,9 km/h (3 Bft) 95,74 %
24.12.2021 16:46 8,0 C 7,2 C 5,6 C 95 % 1004,4 hPa 0,0 l/m 0 min 0 min 0 W/m 6,4 km/h (2 Bft) 95,74 %
24.12.2021 16:48 8,0 C 7,2 C 5,6 C 95 % 1004,4 hPa 0,0 l/m 0 min 0 min 0 W/m 12,9 km/h (3 Bft) 97,83 %
24.12.2021 16:50 7,9 C 7,2 C 5,6 C 95 % 1004,4 hPa 0,0 l/m 0 min 0 min 0 W/m 3,2 km/h (1 Bft) 97,87 %
24.12.2021 16:52 7,9 C 6,7 C 5,6 C 95 % 1004,5 hPa 0,0 l/m 0 min 0 min 0 W/m 6,4 km/h (2 Bft) 95,74 %
24.12.2021 16:54 7,9 C 6,7 C 5,6 C 95 % 1004,5 hPa 0,0 l/m 0 min 0 min 0 W/m 6,4 km/h (2 Bft) 97,87 %
24.12.2021 16:56 7,9 C 7,2 C 5,6 C 95 % 1004,5 hPa 0,0 l/m 0 min 0 min 0 W/m 6,4 km/h (2 Bft) 97,87 %
24.12.2021 16:58 7,9 C 7,2 C 5,6 C 95 % 1004,6 hPa 0,0 l/m 0 min 0 min 0 W/m 3,2 km/h (1 Bft) 97,87 %
24.12.2021 17:00 7,9 C 7,2 C 5,6 C 95 % 1004,6 hPa 0,0 l/m 0 min 0 min 0 W/m 6,4 km/h (2 Bft) 95,65 %
24.12.2021 17:02 7,9 C 7,2 C 5,6 C 95 % 1004,6 hPa 0,0 l/m 0 min 0 min 0 W/m 6,4 km/h (2 Bft) 95,74 %
24.12.2021 17:04 7,9 C 7,2 C 5,6 C 95 % 1004,6 hPa 0,0 l/m 0 min 0 min 0 W/m 3,2 km/h (1 Bft) 97,87 %
24.12.2021 17:06 8,0 C 7,2 C 5,6 C 95 % 1004,7 hPa 0,0 l/m 0 min 0 min 0 W/m 6,4 km/h (2 Bft) 95,74 %
24.12.2021 17:08 8,0 C 7,2 C 6,1 C 96 % 1004,7 hPa 0,0 l/m 0 min 0 min 0 W/m 12,9 km/h (3 Bft) 100,00 %
24.12.2021 17:10 8,0 C 7,2 C 6,1 C 96 % 1004,7 hPa 0,0 l/m 0 min 0 min 0 W/m 9,7 km/h (2 Bft) 100,00 %
24.12.2021 17:12 8,1 C 7,2 C 6,1 C 96 % 1004,7 hPa 0,0 l/m 0 min 0 min 0 W/m 6,4 km/h (2 Bft) 100,00 %
24.12.2021 17:14 8,0 C 7,2 C 6,1 C 96 % 1004,7 hPa 0,0 l/m 0 min 0 min 0 W/m 6,4 km/h (2 Bft) 100,00 %
24.12.2021 17:16 8,0 C 7,2 C 5,6 C 96 % 1004,7 hPa 0,0 l/m 0 min 0 min 0 W/m 6,4 km/h (2 Bft) 97,14 %
24.12.2021 17:18 7,9 C 7,2 C 5,6 C 96 % 1004,8 hPa 0,0 l/m 0 min 0 min 0 W/m 12,9 km/h (3 Bft) 100,00 %
24.12.2021 17:20 7,9 C 7,2 C 5,6 C 96 % 1004,7 hPa 0,0 l/m 0 min 0 min 0 W/m 12,9 km/h (3 Bft) 100,00 %
24.12.2021 17:22 7,9 C 7,2 C 5,6 C 96 % 1004,7 hPa 0,0 l/m 0 min 0 min 0 W/m 6,4 km/h (2 Bft) 100,00 %
24.12.2021 17:24 7,9 C 7,2 C 5,6 C 96 % 1004,7 hPa 0,0 l/m 0 min 0 min 0 W/m 12,9 km/h (3 Bft) 97,83 %
24.12.2021 17:26 7,9 C 7,2 C 5,6 C 96 % 1004,8 hPa 0,0 l/m 0 min 0 min 0 W/m 9,7 km/h (2 Bft) 100,00 %
24.12.2021 17:28 7,9 C 7,2 C 5,6 C 96 % 1004,8 hPa 0,0 l/m 0 min 0 min 0 W/m 12,9 km/h (3 Bft) 100,00 %
24.12.2021 17:30 7,9 C 7,2 C 5,6 C 96 % 1004,8 hPa 0,0 l/m 0 min 0 min 0 W/m 9,7 km/h (2 Bft) 100,00 %
24.12.2021 17:32 7,9 C 7,2 C 5,6 C 96 % 1004,8 hPa 0,0 l/m 0 min 0 min 0 W/m 6,4 km/h (2 Bft) 100,00 %
24.12.2021 17:34 7,9 C 7,2 C 5,6 C 96 % 1004,8 hPa 0,0 l/m 0 min 0 min 0 W/m 9,7 km/h (2 Bft) 97,83 %
24.12.2021 17:36 7,9 C 7,2 C 5,6 C 96 % 1004,8 hPa 0,0 l/m 0 min 0 min 0 W/m 12,9 km/h (3 Bft) 97,22 %
24.12.2021 17:38 7,9 C 7,2 C 5,6 C 96 % 1004,8 hPa 0,0 l/m 0 min 0 min 0 W/m 6,4 km/h (2 Bft) 100,00 %
24.12.2021 17:40 7,9 C 7,2 C 6,1 C 96 % 1004,7 hPa 0,0 l/m 0 min 0 min 0 W/m 16,1 km/h (3 Bft) 100,00 %
24.12.2021 17:42 7,9 C 7,2 C 6,1 C 96 % 1004,8 hPa 0,0 l/m 0 min 0 min 0 W/m 12,9 km/h (3 Bft) 97,87 %
24.12.2021 17:44 8,0 C 7,2 C 6,1 C 96 % 1004,7 hPa 0,0 l/m 0 min 0 min 0 W/m 22,5 km/h (4 Bft) 100,00 %
24.12.2021 17:46 8,0 C 7,2 C 6,1 C 96 % 1004,7 hPa 0,0 l/m 0 min 0 min 0 W/m 6,4 km/h (2 Bft) 96,61 %
24.12.2021 17:48 8,0 C 7,2 C 6,1 C 96 % 1004,6 hPa 0,0 l/m 0 min 0 min 0 W/m 12,9 km/h (3 Bft) 93,48 %
24.12.2021 17:50 8,1 C 7,2 C 6,1 C 96 % 1004,6 hPa 0,0 l/m 0 min 0 min 0 W/m 16,1 km/h (3 Bft) 95,74 %
24.12.2021 17:52 8,1 C 7,2 C 6,1 C 96 % 1004,6 hPa 0,0 l/m 0 min 0 min 0 W/m 12,9 km/h (3 Bft) 95,74 %
24.12.2021 17:54 8,1 C 7,2 C 6,1 C 96 % 1004,6 hPa 0,0 l/m 0 min 0 min 0 W/m 6,4 km/h (2 Bft) 95,74 %
24.12.2021 17:56 8,1 C 7,2 C 6,1 C 96 % 1004,6 hPa 0,0 l/m 0 min 0 min 0 W/m 12,9 km/h (3 Bft) 95,74 %
24.12.2021 17:58 8,1 C 7,2 C 6,1 C 96 % 1004,5 hPa 0,0 l/m 0 min 0 min 0 W/m 16,1 km/h (3 Bft) 94,29 %
24.12.2021 18:00 8,1 C 7,2 C 6,1 C 96 % 1004,5 hPa 0,0 l/m 0 min 0 min 0 W/m 6,4 km/h (2 Bft) 96,55 %
24.12.2021 18:02 8,1 C 7,2 C 6,1 C 96 % 1004,5 hPa 0,0 l/m 0 min 0 min 0 W/m 12,9 km/h (3 Bft) 94,44 %
24.12.2021 18:04 8,1 C 7,2 C 6,1 C 96 % 1004,5 hPa 0,0 l/m 0 min 0 min 0 W/m 9,7 km/h (2 Bft) 95,24 %
24.12.2021 18:08 8,1 C 7,2 C 6,1 C 96 % 1004,5 hPa 0,0 l/m 0 min 0 min 0 W/m 12,9 km/h (3 Bft) 96,08 %
24.12.2021 18:10 8,1 C 7,2 C 6,1 C 96 % 1004,5 hPa 0,0 l/m 0 min 0 min 0 W/m 6,4 km/h (2 Bft) 95,74 %
24.12.2021 18:12 8,1 C 7,2 C 6,1 C 96 % 1004,5 hPa 0,0 l/m 0 min 0 min 0 W/m 6,4 km/h (2 Bft) 95,92 %
24.12.2021 18:14 8,0 C 7,2 C 6,1 C 96 % 1004,5 hPa 0,0 l/m 0 min 0 min 0 W/m 6,4 km/h (2 Bft) 93,62 %
24.12.2021 18:16 8,0 C 7,2 C 6,1 C 96 % 1004,5 hPa 0,0 l/m 0 min 0 min 0 W/m 6,4 km/h (2 Bft) 93,75 %
24.12.2021 18:18 8,0 C 7,2 C 6,1 C 96 % 1004,4 hPa 0,0 l/m 0 min 0 min 0 W/m 12,9 km/h (3 Bft) 95,74 %
24.12.2021 18:20 8,0 C 7,2 C 6,1 C 96 % 1004,5 hPa 0,0 l/m 0 min 0 min 0 W/m 6,4 km/h (2 Bft) 95,74 %
24.12.2021 18:22 8,0 C 7,2 C 6,1 C 96 % 1004,5 hPa 0,0 l/m 0 min 0 min 0 W/m 6,4 km/h (2 Bft) 97,14 %
24.12.2021 18:24 8,0 C 7,2 C 5,6 C 96 % 1004,4 hPa 0,0 l/m 0 min 0 min 0 W/m 9,7 km/h (2 Bft) 46,34 %
24.12.2021 18:26 7,9 C 7,2 C 5,6 C 96 % 1004,4 hPa 0,0 l/m 0 min 0 min 0 W/m 3,2 km/h (1 Bft) 97,83 %
24.12.2021 18:28 7,9 C 7,2 C 5,6 C 96 % 1004,4 hPa 0,0 l/m 0 min 0 min 0 W/m 6,4 km/h (2 Bft) 96,36 %
24.12.2021 18:30 7,9 C 7,2 C 5,6 C 96 % 1004,4 hPa 0,0 l/m 0 min 0 min 0 W/m 6,4 km/h (2 Bft) 97,87 %
24.12.2021 18:32 7,9 C 7,2 C 5,6 C 96 % 1004,4 hPa 0,0 l/m 0 min 0 min 0 W/m 6,4 km/h (2 Bft) 95,83 %
24.12.2021 18:34 7,9 C 7,2 C 5,6 C 96 % 1004,4 hPa 0,0 l/m 0 min 0 min 0 W/m 6,4 km/h (2 Bft) 100,00 %
24.12.2021 18:36 7,8 C 7,2 C 5,6 C 96 % 1004,4 hPa 0,0 l/m 0 min 0 min 0 W/m 6,4 km/h (2 Bft) 100,00 %
24.12.2021 18:38 7,8 C 7,2 C 5,6 C 96 % 1004,4 hPa 0,0 l/m 0 min 0 min 0 W/m 6,4 km/h (2 Bft) 100,00 %
24.12.2021 18:40 7,8 C 6,7 C 5,6 C 96 % 1004,4 hPa 0,0 l/m 0 min 0 min 0 W/m 6,4 km/h (2 Bft) 100,00 %
24.12.2021 18:42 7,8 C 6,7 C 5,6 C 96 % 1004,4 hPa 0,0 l/m 0 min 0 min 0 W/m 3,2 km/h (1 Bft) 97,87 %
24.12.2021 18:44 7,8 C 6,7 C 5,6 C 96 % 1004,4 hPa 0,0 l/m 0 min 0 min 0 W/m 3,2 km/h (1 Bft) 100,00 %
24.12.2021 18:46 7,8 C 6,7 C 5,6 C 96 % 1004,4 hPa 0,0 l/m 0 min 0 min 0 W/m 3,2 km/h (1 Bft) 97,83 %
24.12.2021 18:48 7,8 C 6,7 C 5,6 C 96 % 1004,4 hPa 0,0 l/m 0 min 0 min 0 W/m 6,4 km/h (2 Bft) 100,00 %
24.12.2021 18:50 7,7 C 6,7 C 5,6 C 96 % 1004,5 hPa 0,0 l/m 0 min 0 min 0 W/m 3,2 km/h (1 Bft) 100,00 %
24.12.2021 18:52 7,7 C 6,7 C 5,6 C 96 % 1004,5 hPa 0,0 l/m 0 min 0 min 0 W/m 6,4 km/h (2 Bft) 100,00 %
24.12.2021 18:54 7,7 C 6,7 C 5,6 C 96 % 1004,5 hPa 0,0 l/m 0 min 0 min 0 W/m 9,7 km/h (2 Bft) 100,00 %
24.12.2021 18:56 7,7 C 6,7 C 5,6 C 96 % 1004,5 hPa 0,0 l/m 0 min 0 min 0 W/m 6,4 km/h (2 Bft) 100,00 %
24.12.2021 18:58 7,7 C 6,7 C 5,6 C 96 % 1004,5 hPa 0,0 l/m 0 min 0 min 0 W/m 6,4 km/h (2 Bft) 100,00 %
24.12.2021 19:00 7,7 C 6,7 C 5,6 C 96 % 1004,4 hPa 0,0 l/m 0 min 0 min 0 W/m 6,4 km/h (2 Bft) 100,00 %
24.12.2021 19:02 7,7 C 6,7 C 5,6 C 96 % 1004,4 hPa 0,0 l/m 0 min 0 min 0 W/m 3,2 km/h (1 Bft) 97,92 %
24.12.2021 19:04 7,7 C 6,7 C 5,6 C 96 % 1004,5 hPa 0,0 l/m 0 min 0 min 0 W/m 6,4 km/h (2 Bft) 100,00 %
24.12.2021 19:06 7,7 C 6,7 C 5,6 C 96 % 1004,5 hPa 0,0 l/m 0 min 0 min 0 W/m 3,2 km/h (1 Bft) 100,00 %
24.12.2021 19:08 7,7 C 6,7 C 5,6 C 96 % 1004,5 hPa 0,0 l/m 0 min 0 min 0 W/m 6,4 km/h (2 Bft) 97,87 %
24.12.2021 19:10 7,7 C 6,7 C 5,6 C 96 % 1004,5 hPa 0,0 l/m 0 min 0 min 0 W/m 9,7 km/h (2 Bft) 100,00 %
24.12.2021 19:12 7,6 C 6,7 C 5,6 C 96 % 1004,4 hPa 0,0 l/m 0 min 0 min 0 W/m 6,4 km/h (2 Bft) 97,96 %
24.12.2021 19:14 7,6 C 6,7 C 5,6 C 96 % 1004,5 hPa 0,0 l/m 0 min 0 min 0 W/m 6,4 km/h (2 Bft) 97,87 %
24.12.2021 19:16 7,6 C 6,7 C 5,6 C 96 % 1004,4 hPa 0,0 l/m 0 min 0 min 0 W/m 6,4 km/h (2 Bft) 97,87 %
24.12.2021 19:18 7,6 C 6,7 C 5,6 C 96 % 1004,4 hPa 0,0 l/m 0 min 0 min 0 W/m 6,4 km/h (2 Bft) 97,87 %
24.12.2021 19:20 7,6 C 6,7 C 5,6 C 96 % 1004,4 hPa 0,0 l/m 0 min 0 min 0 W/m 6,4 km/h (2 Bft) 97,83 %
24.12.2021 19:22 7,6 C 6,7 C 5,6 C 96 % 1004,3 hPa 0,0 l/m 0 min 0 min 0 W/m 6,4 km/h (2 Bft) 97,22 %
24.12.2021 19:24 7,6 C 6,7 C 5,6 C 96 % 1004,3 hPa 0,0 l/m 0 min 0 min 0 W/m 6,4 km/h (2 Bft) 97,83 %
24.12.2021 19:26 7,6 C 6,7 C 5,6 C 96 % 1004,3 hPa 0,0 l/m 0 min 0 min 0 W/m 3,2 km/h (1 Bft) 95,74 %
24.12.2021 19:28 7,6 C 6,7 C 5,6 C 96 % 1004,3 hPa 0,0 l/m 0 min 0 min 0 W/m 6,4 km/h (2 Bft) 95,74 %
24.12.2021 19:30 7,6 C 6,7 C 5,6 C 96 % 1004,3 hPa 0,0 l/m 0 min 0 min 0 W/m 3,2 km/h (1 Bft) 97,87 %
24.12.2021 19:32 7,6 C 6,7 C 5,6 C 96 % 1004,4 hPa 0,0 l/m 0 min 0 min 0 W/m 12,9 km/h (3 Bft) 97,87 %
24.12.2021 19:34 7,6 C 6,7 C 5,6 C 96 % 1004,4 hPa 0,0 l/m 0 min 0 min 0 W/m 6,4 km/h (2 Bft) 97,87 %
24.12.2021 19:36 7,6 C 6,7 C 5,6 C 96 % 1004,3 hPa 0,0 l/m 0 min 0 min 0 W/m 3,2 km/h (1 Bft) 96,15 %
24.12.2021 19:38 7,6 C 6,7 C 5,6 C 96 % 1004,4 hPa 0,0 l/m 0 min 0 min 0 W/m 6,4 km/h (2 Bft) 97,87 %
24.12.2021 19:40 7,6 C 6,7 C 5,6 C 96 % 1004,4 hPa 0,0 l/m 0 min 0 min 0 W/m 9,7 km/h (2 Bft) 95,74 %
24.12.2021 19:42 7,6 C 6,7 C 5,6 C 96 % 1004,5 hPa 0,0 l/m 0 min 0 min 0 W/m 6,4 km/h (2 Bft) 97,87 %
24.12.2021 19:44 7,6 C 6,7 C 5,6 C 96 % 1004,6 hPa 0,0 l/m 0 min 0 min 0 W/m 6,4 km/h (2 Bft) 95,74 %
24.12.2021 19:46 7,6 C 6,7 C 5,6 C 96 % 1004,5 hPa 0,0 l/m 0 min 0 min 0 W/m 6,4 km/h (2 Bft) 97,96 %
24.12.2021 19:48 7,6 C 7,2 C 5,6 C 96 % 1004,6 hPa 0,0 l/m 0 min 0 min 0 W/m 6,4 km/h (2 Bft) 93,62 %
24.12.2021 19:50 7,6 C 7,2 C 5,6 C 96 % 1004,6 hPa 0,0 l/m 0 min 0 min 0 W/m 6,4 km/h (2 Bft) 95,74 %
24.12.2021 19:52 7,6 C 7,2 C 5,6 C 96 % 1004,6 hPa 0,0 l/m 0 min 0 min 0 W/m 3,2 km/h (1 Bft) 95,74 %
24.12.2021 19:54 7,6 C 7,2 C 5,6 C 96 % 1004,6 hPa 0,0 l/m 0 min 0 min 0 W/m 6,4 km/h (2 Bft) 95,74 %
24.12.2021 19:56 7,6 C 7,2 C 5,6 C 96 % 1004,7 hPa 0,0 l/m 0 min 0 min 0 W/m 6,4 km/h (2 Bft) 95,65 %
24.12.2021 19:58 7,6 C 7,2 C 5,6 C 96 % 1004,7 hPa 0,0 l/m 0 min 0 min 0 W/m 3,2 km/h (1 Bft) 93,62 %
24.12.2021 20:00 7,6 C 7,2 C 5,6 C 96 % 1004,7 hPa 0,0 l/m 0 min 0 min 0 W/m 6,4 km/h (2 Bft) 93,62 %
24.12.2021 20:02 7,6 C 7,2 C 5,6 C 96 % 1004,7 hPa 0,0 l/m 0 min 0 min 0 W/m 6,4 km/h (2 Bft) 93,88 %
24.12.2021 20:04 7,6 C 7,2 C 5,6 C 96 % 1004,7 hPa 0,0 l/m 0 min 0 min 0 W/m 6,4 km/h (2 Bft) 95,74 %
24.12.2021 20:06 7,6 C 7,2 C 5,6 C 96 % 1004,7 hPa 0,0 l/m 0 min 0 min 0 W/m 3,2 km/h (1 Bft) 95,74 %
24.12.2021 20:08 7,7 C 7,2 C 5,6 C 96 % 1004,7 hPa 0,0 l/m 0 min 0 min 0 W/m 6,4 km/h (2 Bft) 97,22 %
24.12.2021 20:10 7,6 C 7,2 C 5,6 C 96 % 1004,7 hPa 0,0 l/m 0 min 0 min 0 W/m 6,4 km/h (2 Bft) 97,83 %
24.12.2021 20:12 7,7 C 7,2 C 5,6 C 96 % 1004,7 hPa 0,0 l/m 0 min 0 min 0 W/m 6,4 km/h (2 Bft) 97,87 %
24.12.2021 20:14 7,7 C 7,2 C 5,6 C 96 % 1004,8 hPa 0,0 l/m 0 min 0 min 0 W/m 6,4 km/h (2 Bft) 97,87 %
24.12.2021 20:16 7,7 C 7,2 C 5,6 C 96 % 1004,8 hPa 0,0 l/m 0 min 0 min 0 W/m 6,4 km/h (2 Bft) 95,74 %
24.12.2021 20:18 7,7 C 7,2 C 5,6 C 96 % 1004,7 hPa 0,0 l/m 0 min 0 min 0 W/m 6,4 km/h (2 Bft) 97,87 %
24.12.2021 20:20 7,6 C 7,2 C 5,6 C 96 % 1004,8 hPa 0,0 l/m 0 min 0 min 0 W/m 9,7 km/h (2 Bft) 97,87 %
24.12.2021 20:22 7,6 C 7,2 C 5,6 C 96 % 1004,8 hPa 0,0 l/m 0 min 0 min 0 W/m 6,4 km/h (2 Bft) 97,83 %
24.12.2021 20:24 7,6 C 7,2 C 5,6 C 96 % 1004,7 hPa 0,0 l/m 0 min 0 min 0 W/m 6,4 km/h (2 Bft) 97,87 %
24.12.2021 20:26 7,6 C 7,2 C 5,6 C 96 % 1004,7 hPa 0,0 l/m 0 min 0 min 0 W/m 3,2 km/h (1 Bft) 95,74 %
24.12.2021 20:28 7,6 C 7,2 C 5,6 C 96 % 1004,7 hPa 0,0 l/m 0 min 0 min 0 W/m 3,2 km/h (1 Bft) 97,87 %
24.12.2021 20:30 7,6 C 7,2 C 5,6 C 96 % 1004,7 hPa 0,0 l/m 0 min 0 min 0 W/m 6,4 km/h (2 Bft) 97,87 %
24.12.2021 20:32 7,6 C 7,2 C 5,6 C 96 % 1004,7 hPa 0,0 l/m 0 min 0 min 0 W/m 6,4 km/h (2 Bft) 94,34 %
24.12.2021 20:34 7,6 C 7,2 C 5,6 C 96 % 1004,8 hPa 0,0 l/m 0 min 0 min 0 W/m 3,2 km/h (1 Bft) 98,00 %
24.12.2021 20:36 7,6 C 7,2 C 5,6 C 96 % 1004,7 hPa 0,0 l/m 0 min 0 min 0 W/m 3,2 km/h (1 Bft) 97,87 %
24.12.2021 20:38 7,6 C 7,2 C 5,6 C 96 % 1004,8 hPa 0,0 l/m 0 min 0 min 0 W/m 6,4 km/h (2 Bft) 97,30 %
24.12.2021 20:40 7,6 C 7,2 C 5,6 C 96 % 1004,8 hPa 0,0 l/m 0 min 0 min 0 W/m 6,4 km/h (2 Bft) 97,87 %
24.12.2021 20:42 7,6 C 7,2 C 5,6 C 96 % 1004,7 hPa 0,0 l/m 0 min 0 min 0 W/m 3,2 km/h (1 Bft) 97,87 %
24.12.2021 20:44 7,6 C 7,2 C 5,6 C 96 % 1004,7 hPa 0,0 l/m 0 min 0 min 0 W/m 3,2 km/h (1 Bft) 97,83 %
24.12.2021 20:46 7,6 C 7,2 C 5,6 C 96 % 1004,7 hPa 0,0 l/m 0 min 0 min 0 W/m 6,4 km/h (2 Bft) 97,87 %
24.12.2021 20:48 7,6 C 7,2 C 5,6 C 96 % 1004,6 hPa 0,0 l/m 0 min 0 min 0 W/m 3,2 km/h (1 Bft) 98,18 %
24.12.2021 20:50 7,6 C 7,2 C 5,6 C 96 % 1004,7 hPa 0,0 l/m 0 min 0 min 0 W/m 3,2 km/h (1 Bft) 97,87 %
24.12.2021 20:52 7,6 C 7,2 C 5,6 C 96 % 1004,7 hPa 0,0 l/m 0 min 0 min 0 W/m 3,2 km/h (1 Bft) 97,87 %
24.12.2021 20:54 7,6 C 7,2 C 5,6 C 97 % 1004,6 hPa 0,0 l/m 0 min 0 min 0 W/m 3,2 km/h (1 Bft) 97,83 %
24.12.2021 20:56 7,6 C 7,2 C 5,6 C 97 % 1004,6 hPa 0,0 l/m 0 min 0 min 0 W/m 6,4 km/h (2 Bft) 97,87 %
24.12.2021 20:58 7,7 C 7,2 C 5,6 C 97 % 1004,6 hPa 0,0 l/m 0 min 0 min 0 W/m 6,4 km/h (2 Bft) 97,87 %
24.12.2021 21:00 7,7 C 7,2 C 5,6 C 97 % 1004,6 hPa 0,0 l/m 0 min 0 min 0 W/m 6,4 km/h (2 Bft) 95,74 %
24.12.2021 21:02 7,7 C 7,2 C 5,6 C 97 % 1004,6 hPa 0,0 l/m 0 min 0 min 0 W/m 9,7 km/h (2 Bft) 95,92 %
24.12.2021 21:04 7,7 C 7,2 C 5,6 C 97 % 1004,7 hPa 0,0 l/m 0 min 0 min 0 W/m 12,9 km/h (3 Bft) 100,00 %
24.12.2021 21:06 7,7 C 7,2 C 5,6 C 97 % 1004,8 hPa 0,0 l/m 0 min 0 min 0 W/m 6,4 km/h (2 Bft) 100,00 %
24.12.2021 21:08 7,7 C 6,7 C 5,6 C 97 % 1004,8 hPa 0,0 l/m 0 min 0 min 0 W/m 6,4 km/h (2 Bft) 100,00 %
24.12.2021 21:10 7,7 C 6,7 C 5,6 C 97 % 1004,8 hPa 0,0 l/m 0 min 0 min 0 W/m 6,4 km/h (2 Bft) 97,14 %
24.12.2021 21:12 7,6 C 6,7 C 5,6 C 97 % 1004,8 hPa 0,0 l/m 0 min 0 min 0 W/m 3,2 km/h (1 Bft) 100,00 %
24.12.2021 21:14 7,6 C 6,7 C 5,6 C 97 % 1004,8 hPa 0,0 l/m 0 min 0 min 0 W/m 6,4 km/h (2 Bft) 100,00 %
24.12.2021 21:16 7,6 C 6,7 C 5,6 C 97 % 1004,8 hPa 0,0 l/m 0 min 2 min 0 W/m 6,4 km/h (2 Bft) 97,14 %
24.12.2021 21:18 7,6 C 6,7 C 5,6 C 96 % 1004,8 hPa 0,0 l/m 0 min 2 min 0 W/m 9,7 km/h (2 Bft) 100,00 %
24.12.2021 21:20 7,6 C 6,7 C 5,6 C 96 % 1004,8 hPa 0,0 l/m 0 min 2 min 0 W/m 12,9 km/h (3 Bft) 100,00 %
24.12.2021 21:22 7,6 C 6,7 C 5,6 C 96 % 1004,8 hPa 0,0 l/m 0 min 0 min 0 W/m 12,9 km/h (3 Bft) 100,00 %
24.12.2021 21:24 7,6 C 6,7 C 5,6 C 96 % 1004,8 hPa 0,0 l/m 0 min 2 min 0 W/m 16,1 km/h (3 Bft) 100,00 %
24.12.2021 21:26 7,6 C 6,7 C 5,6 C 96 % 1004,8 hPa 0,2 l/m 0 min 2 min 0 W/m 6,4 km/h (2 Bft) 97,87 %
24.12.2021 21:28 7,5 C 6,7 C 5,6 C 96 % 1004,8 hPa 0,0 l/m 0 min 2 min 0 W/m 6,4 km/h (2 Bft) 100,00 %
24.12.2021 21:30 7,4 C 6,7 C 5,0 C 96 % 1004,9 hPa 0,0 l/m 0 min 2 min 0 W/m 6,4 km/h (2 Bft) 100,00 %
24.12.2021 21:32 7,4 C 6,1 C 5,0 C 96 % 1004,9 hPa 0,0 l/m 0 min 0 min 0 W/m 6,4 km/h (2 Bft) 100,00 %
24.12.2021 21:34 7,4 C 6,1 C 5,0 C 97 % 1004,9 hPa 0,2 l/m 0 min 2 min 0 W/m 6,4 km/h (2 Bft) 100,00 %
24.12.2021 21:36 7,3 C 6,1 C 5,0 C 97 % 1004,9 hPa 0,0 l/m 0 min 2 min 0 W/m 9,7 km/h (2 Bft) 97,92 %
24.12.2021 21:38 7,3 C 6,1 C 5,0 C 97 % 1004,9 hPa 0,0 l/m 0 min 2 min 0 W/m 12,9 km/h (3 Bft) 100,00 %
24.12.2021 21:40 7,3 C 6,1 C 5,0 C 97 % 1004,9 hPa 0,2 l/m 0 min 2 min 0 W/m 6,4 km/h (2 Bft) 100,00 %
24.12.2021 21:42 7,2 C 6,1 C 5,0 C 96 % 1005,0 hPa 0,0 l/m 0 min 2 min 0 W/m 9,7 km/h (2 Bft) 100,00 %
24.12.2021 21:44 7,2 C 6,1 C 5,0 C 96 % 1005,0 hPa 0,0 l/m 0 min 0 min 0 W/m 12,9 km/h (3 Bft) 97,87 %
24.12.2021 21:46 7,2 C 6,1 C 5,0 C 97 % 1005,0 hPa 0,0 l/m 0 min 0 min 0 W/m 12,9 km/h (3 Bft) 97,87 %
24.12.2021 21:48 7,1 C 6,1 C 5,0 C 97 % 1004,9 hPa 0,0 l/m 0 min 0 min 0 W/m 9,7 km/h (2 Bft) 97,87 %
24.12.2021 21:50 7,1 C 6,1 C 5,0 C 97 % 1004,9 hPa 0,0 l/m 0 min 0 min 0 W/m 6,4 km/h (2 Bft) 97,87 %
24.12.2021 21:52 7,1 C 6,1 C 5,0 C 97 % 1004,9 hPa 0,0 l/m 0 min 0 min 0 W/m 3,2 km/h (1 Bft) 97,87 %
24.12.2021 21:54 7,1 C 6,1 C 5,0 C 97 % 1004,9 hPa 0,0 l/m 0 min 0 min 0 W/m 9,7 km/h (2 Bft) 97,83 %
24.12.2021 21:56 7,0 C 6,1 C 5,0 C 97 % 1004,8 hPa 0,0 l/m 0 min 0 min 0 W/m 9,7 km/h (2 Bft) 95,74 %
24.12.2021 21:58 7,0 C 6,1 C 5,0 C 97 % 1004,8 hPa 0,0 l/m 0 min 0 min 0 W/m 16,1 km/h (3 Bft) 97,87 %
24.12.2021 22:00 6,9 C 6,1 C 5,0 C 97 % 1004,9 hPa 0,0 l/m 0 min 0 min 0 W/m 6,4 km/h (2 Bft) 97,87 %
24.12.2021 22:02 6,9 C 6,1 C 5,0 C 97 % 1004,9 hPa 0,0 l/m 0 min 0 min 0 W/m 6,4 km/h (2 Bft) 97,87 %
24.12.2021 22:04 6,9 C 6,1 C 5,0 C 97 % 1004,9 hPa 0,0 l/m 0 min 0 min 0 W/m 6,4 km/h (2 Bft) 97,87 %
24.12.2021 22:06 6,8 C 5,6 C 5,0 C 97 % 1004,9 hPa 0,0 l/m 0 min 0 min 0 W/m 6,4 km/h (2 Bft) 97,83 %
24.12.2021 22:08 6,8 C 5,6 C 5,0 C 97 % 1004,9 hPa 0,0 l/m 0 min 0 min 0 W/m 9,7 km/h (2 Bft) 97,87 %
24.12.2021 22:10 6,8 C 5,6 C 4,4 C 97 % 1004,8 hPa 0,0 l/m 0 min 0 min 0 W/m 6,4 km/h (2 Bft) 95,74 %
24.12.2021 22:12 6,7 C 5,6 C 4,4 C 97 % 1004,8 hPa 0,0 l/m 0 min 0 min 0 W/m 6,4 km/h (2 Bft) 95,74 %
24.12.2021 22:14 6,7 C 5,6 C 4,4 C 97 % 1004,8 hPa 0,0 l/m 0 min 0 min 0 W/m 6,4 km/h (2 Bft) 95,74 %
24.12.2021 22:16 6,6 C 5,6 C 4,4 C 97 % 1004,9 hPa 0,0 l/m 0 min 0 min 0 W/m 6,4 km/h (2 Bft) 91,49 %
24.12.2021 22:18 6,6 C 5,6 C 4,4 C 97 % 1004,9 hPa 0,0 l/m 0 min 0 min 0 W/m 3,2 km/h (1 Bft) 93,48 %
24.12.2021 22:20 6,5 C 5,6 C 4,4 C 97 % 1004,9 hPa 0,0 l/m 0 min 0 min 0 W/m 6,4 km/h (2 Bft) 97,87 %
24.12.2021 22:22 6,5 C 5,6 C 4,4 C 97 % 1004,9 hPa 0,0 l/m 0 min 0 min 0 W/m 9,7 km/h (2 Bft) 97,87 %
24.12.2021 22:24 6,4 C 5,6 C 4,4 C 97 % 1005,0 hPa 0,0 l/m 0 min 0 min 0 W/m 16,1 km/h (3 Bft) 97,96 %
24.12.2021 22:26 6,4 C 5,6 C 4,4 C 97 % 1004,9 hPa 0,0 l/m 0 min 0 min 0 W/m 6,4 km/h (2 Bft) 95,74 %
24.12.2021 22:28 6,3 C 5,6 C 4,4 C 97 % 1005,0 hPa 0,0 l/m 0 min 0 min 0 W/m 6,4 km/h (2 Bft) 95,74 %
24.12.2021 22:30 6,3 C 5,6 C 4,4 C 97 % 1005,0 hPa 0,0 l/m 0 min 0 min 0 W/m 3,2 km/h (1 Bft) 95,65 %
24.12.2021 22:32 6,3 C 5,6 C 4,4 C 97 % 1005,0 hPa 0,0 l/m 0 min 0 min 0 W/m 6,4 km/h (2 Bft) 97,87 %
24.12.2021 22:34 6,2 C 5,6 C 4,4 C 97 % 1005,0 hPa 0,0 l/m 0 min 0 min 0 W/m 9,7 km/h (2 Bft) 95,74 %
24.12.2021 22:36 6,2 C 5,6 C 4,4 C 97 % 1005,0 hPa 0,0 l/m 0 min 0 min 0 W/m 3,2 km/h (1 Bft) 97,87 %
24.12.2021 22:38 6,2 C 5,6 C 4,4 C 97 % 1005,0 hPa 0,0 l/m 0 min 0 min 0 W/m 3,2 km/h (1 Bft) 95,74 %
24.12.2021 22:40 6,2 C 5,6 C 4,4 C 97 % 1005,0 hPa 0,0 l/m 0 min 0 min 0 W/m 6,4 km/h (2 Bft) 97,87 %
24.12.2021 22:42 6,2 C 5,6 C 4,4 C 97 % 1005,0 hPa 0,0 l/m 0 min 0 min 0 W/m 3,2 km/h (1 Bft) 97,83 %
24.12.2021 22:44 6,2 C 5,6 C 4,4 C 97 % 1005,0 hPa 0,0 l/m 0 min 0 min 0 W/m 3,2 km/h (1 Bft) 97,87 %
24.12.2021 22:46 6,2 C 5,6 C 4,4 C 97 % 1005,0 hPa 0,0 l/m 0 min 0 min 0 W/m 3,2 km/h (1 Bft) 97,87 %
24.12.2021 22:48 6,2 C 5,6 C 4,4 C 97 % 1005,0 hPa 0,0 l/m 0 min 0 min 0 W/m 6,4 km/h (2 Bft) 95,74 %
24.12.2021 22:50 6,1 C 5,6 C 4,4 C 97 % 1005,0 hPa 0,0 l/m 0 min 0 min 0 W/m 3,2 km/h (1 Bft) 95,74 %
24.12.2021 22:52 6,1 C 5,6 C 4,4 C 97 % 1005,1 hPa 0,0 l/m 0 min 0 min 0 W/m 3,2 km/h (1 Bft) 95,74 %
24.12.2021 22:54 6,1 C 5,6 C 4,4 C 97 % 1005,1 hPa 0,0 l/m 0 min 0 min 0 W/m 6,4 km/h (2 Bft) 95,65 %
24.12.2021 22:56 6,1 C 5,6 C 4,4 C 97 % 1005,0 hPa 0,0 l/m 0 min 0 min 0 W/m 6,4 km/h (2 Bft) 95,74 %
24.12.2021 22:58 6,1 C 5,6 C 4,4 C 97 % 1005,0 hPa 0,0 l/m 0 min 0 min 0 W/m 3,2 km/h (1 Bft) 95,74 %
24.12.2021 23:00 6,1 C 5,6 C 4,4 C 97 % 1005,0 hPa 0,0 l/m 0 min 0 min 0 W/m 0,0 km/h (0 Bft) 95,74 %
24.12.2021 23:02 6,1 C 5,6 C 4,4 C 97 % 1005,0 hPa 0,0 l/m 0 min 0 min 0 W/m 0,0 km/h (0 Bft) 95,74 %
24.12.2021 23:04 6,1 C 5,6 C 4,4 C 97 % 1005,0 hPa 0,0 l/m 0 min 2 min 0 W/m 0,0 km/h (0 Bft) 100,00 %
24.12.2021 23:06 6,1 C 5,6 C 4,4 C 97 % 1005,0 hPa 0,0 l/m 0 min 2 min 0 W/m 6,4 km/h (2 Bft) 95,74 %
24.12.2021 23:08 6,1 C 5,0 C 4,4 C 97 % 1005,0 hPa 0,0 l/m 0 min 2 min 0 W/m 0,0 km/h (0 Bft) 97,87 %
24.12.2021 23:10 6,1 C 5,0 C 4,4 C 97 % 1005,0 hPa 0,0 l/m 0 min 0 min 0 W/m 0,0 km/h (0 Bft) 97,87 %
24.12.2021 23:12 6,0 C 5,0 C 4,4 C 97 % 1005,1 hPa 0,0 l/m 0 min 0 min 0 W/m 3,2 km/h (1 Bft) 97,87 %
24.12.2021 23:14 6,0 C 5,0 C 4,4 C 97 % 1005,1 hPa 0,0 l/m 0 min 2 min 0 W/m 6,4 km/h (2 Bft) 95,74 %
24.12.2021 23:16 6,0 C 5,0 C 4,4 C 97 % 1005,1 hPa 0,0 l/m 0 min 2 min 0 W/m 6,4 km/h (2 Bft) 97,83 %
24.12.2021 23:18 5,9 C 5,0 C 4,4 C 97 % 1005,1 hPa 0,0 l/m 0 min 0 min 0 W/m 6,4 km/h (2 Bft) 97,87 %
24.12.2021 23:20 5,9 C 5,0 C 4,4 C 97 % 1005,1 hPa 0,0 l/m 0 min 0 min 0 W/m 6,4 km/h (2 Bft) 95,74 %
24.12.2021 23:22 5,9 C 5,0 C 4,4 C 97 % 1005,1 hPa 0,0 l/m 0 min 0 min 0 W/m 6,4 km/h (2 Bft) 97,87 %
24.12.2021 23:24 5,9 C 5,0 C 4,4 C 97 % 1005,0 hPa 0,0 l/m 0 min 0 min 0 W/m 9,7 km/h (2 Bft) 95,74 %
24.12.2021 23:26 5,8 C 5,0 C 4,4 C 97 % 1005,1 hPa 0,0 l/m 0 min 0 min 0 W/m 6,4 km/h (2 Bft) 95,74 %
24.12.2021 23:28 5,8 C 5,0 C 4,4 C 97 % 1005,1 hPa 0,0 l/m 0 min 2 min 0 W/m 6,4 km/h (2 Bft) 95,74 %
24.12.2021 23:30 5,8 C 5,0 C 4,4 C 97 % 1005,1 hPa 0,0 l/m 0 min 2 min 0 W/m 6,4 km/h (2 Bft) 93,48 %
24.12.2021 23:32 5,8 C 5,0 C 3,9 C 98 % 1005,1 hPa 0,2 l/m 0 min 2 min 0 W/m 9,7 km/h (2 Bft) 97,87 %
24.12.2021 23:34 5,8 C 5,0 C 3,9 C 98 % 1005,1 hPa 0,0 l/m 0 min 2 min 0 W/m 6,4 km/h (2 Bft) 97,87 %
24.12.2021 23:36 5,7 C 5,0 C 3,9 C 98 % 1005,1 hPa 0,0 l/m 0 min 2 min 0 W/m 6,4 km/h (2 Bft) 95,74 %
24.12.2021 23:38 5,7 C 5,0 C 3,9 C 98 % 1005,1 hPa 0,0 l/m 0 min 2 min 0 W/m 9,7 km/h (2 Bft) 100,00 %
24.12.2021 23:40 5,7 C 5,0 C 3,9 C 97 % 1005,2 hPa 0,0 l/m 0 min 0 min 0 W/m 9,7 km/h (2 Bft) 93,48 %
24.12.2021 23:42 5,7 C 5,0 C 3,9 C 97 % 1005,1 hPa 0,0 l/m 0 min 0 min 0 W/m 6,4 km/h (2 Bft) 95,74 %
24.12.2021 23:44 5,7 C 5,0 C 3,9 C 97 % 1005,1 hPa 0,0 l/m 0 min 0 min 0 W/m 6,4 km/h (2 Bft) 93,62 %
24.12.2021 23:46 5,7 C 5,0 C 3,9 C 97 % 1005,1 hPa 0,0 l/m 0 min 2 min 0 W/m 6,4 km/h (2 Bft) 97,87 %
24.12.2021 23:48 5,6 C 5,0 C 3,9 C 97 % 1005,1 hPa 0,0 l/m 0 min 2 min 0 W/m 6,4 km/h (2 Bft) 95,74 %
24.12.2021 23:50 5,6 C 5,0 C 3,9 C 98 % 1005,1 hPa 0,0 l/m 0 min 2 min 0 W/m 6,4 km/h (2 Bft) 97,87 %
24.12.2021 23:52 5,6 C 5,0 C 3,9 C 98 % 1005,1 hPa 0,0 l/m 0 min 2 min 0 W/m 3,2 km/h (1 Bft) 97,83 %
24.12.2021 23:54 5,6 C 5,0 C 3,9 C 98 % 1005,2 hPa 0,0 l/m 0 min 0 min 0 W/m 6,4 km/h (2 Bft) 97,87 %
24.12.2021 23:56 5,6 C 5,0 C 3,9 C 98 % 1005,1 hPa 0,0 l/m 0 min 0 min 0 W/m 3,2 km/h (1 Bft) 97,87 %
24.12.2021 23:58 5,6 C 5,0 C 3,9 C 98 % 1005,1 hPa 0,0 l/m 0 min 0 min 0 W/m 3,2 km/h (1 Bft) 97,87 %
_ Min-Zeit 23:48 23:08 23:32 14:54 15:34 - - - - 23:00 18:24
Minimum _ 5,6 C 5,0 C 3,9 C 93 % 1004,2 hPa - - - - 0,0 km/h (0 Bft) 46,34 %
_ Max-Zeit 14:28 14:18 11:10 00:00 00:32 00:24 10:52 00:18 10:54 10:02 00:18
Maximum _ 9,2 C 9,4 C 7,2 C 99 % 1006,1 hPa 0,2 l/m 2 min 2 min 134 W/m 41,8 km/h
S-SW (6 Bft)
100,00 %
Durchschnitt _ 8,0 C 7,3 C 6,0 C 97 % 1004,9 hPa #1,6 l/m #4 min. #1:30 h 38 W/m 13,4 km/h (3 Bft) 97,35 %
© 2021 W. Hausmann